Wetterdaten: Mittwoch, 20.11.2019
Datum Zeit Temp. Aussen Temp. o. S. Temp +5cm Feuchte Auss Luftdruck Regen Sonnenschein Regendauer Solar Windben Empfang
20.11.2019 00:00 2,1 C 0,0 C -0,6 C 97 % 1020,2 hPa 0,0 l/m 0 min 0 min 0 W/m 0,0 km/h (0 Bft) 97,87 %
20.11.2019 00:02 2,1 C -0,6 C -0,6 C 97 % 1020,1 hPa 0,0 l/m 0 min 0 min 0 W/m 0,0 km/h (0 Bft) 10,53 %
20.11.2019 00:04 1,9 C -0,6 C -0,6 C 97 % 1020,1 hPa 0,0 l/m 0 min 0 min 0 W/m 0,0 km/h (0 Bft) 91,30 %
20.11.2019 00:06 1,9 C -0,6 C -0,6 C 97 % 1020,1 hPa 0,0 l/m 0 min 0 min 0 W/m 0,0 km/h (0 Bft) 97,87 %
20.11.2019 00:08 1,9 C -0,6 C -0,6 C 97 % 1020,1 hPa 0,0 l/m 0 min 0 min 0 W/m 0,0 km/h (0 Bft) 100,00 %
20.11.2019 00:10 1,8 C -0,6 C -0,6 C 97 % 1020,1 hPa 0,0 l/m 0 min 0 min 0 W/m 0,0 km/h (0 Bft) 100,00 %
20.11.2019 00:12 1,8 C -0,6 C -1,1 C 97 % 1020,1 hPa 0,0 l/m 0 min 0 min 0 W/m 0,0 km/h (0 Bft) 95,74 %
20.11.2019 00:14 1,8 C 0,0 C -1,1 C 97 % 1020,1 hPa 0,0 l/m 0 min 0 min 0 W/m 0,0 km/h (0 Bft) 95,65 %
20.11.2019 00:16 1,7 C 0,0 C -1,1 C 97 % 1020,1 hPa 0,0 l/m 0 min 0 min 0 W/m 0,0 km/h (0 Bft) 95,74 %
20.11.2019 00:18 1,7 C 0,0 C -1,1 C 97 % 1020,1 hPa 0,0 l/m 0 min 0 min 0 W/m 0,0 km/h (0 Bft) 100,00 %
20.11.2019 00:20 1,6 C -0,6 C -1,1 C 97 % 1020,1 hPa 0,0 l/m 0 min 0 min 0 W/m 0,0 km/h (0 Bft) 100,00 %
20.11.2019 00:22 1,6 C -0,6 C -1,1 C 97 % 1020,1 hPa 0,0 l/m 0 min 0 min 0 W/m 0,0 km/h (0 Bft) 93,62 %
20.11.2019 00:24 1,6 C -0,6 C -1,1 C 97 % 1020,1 hPa 0,0 l/m 0 min 0 min 0 W/m 0,0 km/h (0 Bft) 93,48 %
20.11.2019 00:26 1,5 C 0,0 C -1,1 C 97 % 1020,1 hPa 0,0 l/m 0 min 0 min 0 W/m 0,0 km/h (0 Bft) 100,00 %
20.11.2019 00:28 1,5 C 0,0 C -1,1 C 97 % 1020,1 hPa 0,0 l/m 0 min 0 min 0 W/m 0,0 km/h (0 Bft) 95,74 %
20.11.2019 00:30 1,4 C 0,6 C -1,1 C 97 % 1020,1 hPa 0,0 l/m 0 min 0 min 0 W/m 0,0 km/h (0 Bft) 97,87 %
20.11.2019 00:32 1,4 C 0,6 C -1,1 C 97 % 1020,1 hPa 0,0 l/m 0 min 0 min 0 W/m 0,0 km/h (0 Bft) 100,00 %
20.11.2019 00:34 1,4 C 0,0 C -1,1 C 97 % 1020,1 hPa 0,0 l/m 0 min 0 min 0 W/m 0,0 km/h (0 Bft) 95,74 %
20.11.2019 00:36 1,3 C -0,6 C -1,1 C 97 % 1020,1 hPa 0,0 l/m 0 min 0 min 0 W/m 0,0 km/h (0 Bft) 100,00 %
20.11.2019 00:38 1,3 C -0,6 C -1,1 C 97 % 1020,0 hPa 0,0 l/m 0 min 0 min 0 W/m 0,0 km/h (0 Bft) 97,87 %
20.11.2019 00:40 1,3 C -0,6 C -1,1 C 97 % 1020,0 hPa 0,0 l/m 0 min 0 min 0 W/m 0,0 km/h (0 Bft) 97,87 %
20.11.2019 00:42 1,3 C -0,6 C -1,1 C 97 % 1020,0 hPa 0,0 l/m 0 min 0 min 0 W/m 0,0 km/h (0 Bft) 97,87 %
20.11.2019 00:44 1,2 C -0,6 C -1,1 C 97 % 1020,0 hPa 0,0 l/m 0 min 0 min 0 W/m 0,0 km/h (0 Bft) 100,00 %
20.11.2019 00:46 1,2 C -1,1 C -1,1 C 97 % 1020,1 hPa 0,0 l/m 0 min 0 min 0 W/m 0,0 km/h (0 Bft) 100,00 %
20.11.2019 00:48 1,2 C -1,1 C -1,1 C 97 % 1020,0 hPa 0,0 l/m 0 min 0 min 0 W/m 0,0 km/h (0 Bft) 97,83 %
20.11.2019 00:50 1,2 C -1,1 C -1,1 C 97 % 1020,0 hPa 0,0 l/m 0 min 0 min 0 W/m 0,0 km/h (0 Bft) 97,87 %
20.11.2019 00:52 1,1 C -1,1 C -1,1 C 97 % 1020,0 hPa 0,0 l/m 0 min 0 min 0 W/m 0,0 km/h (0 Bft) 97,87 %
20.11.2019 00:54 1,1 C -1,1 C -1,1 C 97 % 1020,1 hPa 0,0 l/m 0 min 0 min 0 W/m 0,0 km/h (0 Bft) 97,87 %
20.11.2019 00:56 1,1 C -1,1 C -1,1 C 97 % 1020,1 hPa 0,0 l/m 0 min 0 min 0 W/m 0,0 km/h (0 Bft) 100,00 %
20.11.2019 00:58 1,1 C -1,1 C -1,1 C 97 % 1020,1 hPa 0,0 l/m 0 min 0 min 0 W/m 0,0 km/h (0 Bft) 100,00 %
20.11.2019 01:00 1,0 C -1,1 C -1,7 C 97 % 1020,1 hPa 0,0 l/m 0 min 0 min 0 W/m 0,0 km/h (0 Bft) 100,00 %
20.11.2019 01:02 0,9 C -1,1 C -1,7 C 97 % 1020,0 hPa 0,0 l/m 0 min 0 min 0 W/m 0,0 km/h (0 Bft) 100,00 %
20.11.2019 01:04 0,9 C -1,1 C -1,7 C 97 % 1020,0 hPa 0,0 l/m 0 min 0 min 0 W/m 0,0 km/h (0 Bft) 97,87 %
20.11.2019 01:06 0,9 C -1,1 C -1,7 C 97 % 1020,0 hPa 0,0 l/m 0 min 0 min 0 W/m 0,0 km/h (0 Bft) 100,00 %
20.11.2019 01:08 0,9 C -1,1 C -1,7 C 97 % 1020,0 hPa 0,0 l/m 0 min 0 min 0 W/m 0,0 km/h (0 Bft) 97,87 %
20.11.2019 01:10 0,8 C -1,1 C -1,7 C 97 % 1020,0 hPa 0,0 l/m 0 min 0 min 0 W/m 0,0 km/h (0 Bft) 95,65 %
20.11.2019 01:12 0,8 C -1,1 C -1,7 C 97 % 1020,0 hPa 0,0 l/m 0 min 0 min 0 W/m 0,0 km/h (0 Bft) 95,74 %
20.11.2019 01:14 0,8 C -1,1 C -1,7 C 97 % 1020,0 hPa 0,0 l/m 0 min 0 min 0 W/m 0,0 km/h (0 Bft) 97,87 %
20.11.2019 01:16 0,7 C -0,6 C -1,7 C 97 % 1020,0 hPa 0,0 l/m 0 min 0 min 0 W/m 0,0 km/h (0 Bft) 91,49 %
20.11.2019 01:18 0,7 C 0,0 C -1,1 C 97 % 1020,0 hPa 0,0 l/m 0 min 0 min 0 W/m 3,2 km/h (1 Bft) 97,87 %
20.11.2019 01:20 0,7 C 0,0 C -1,1 C 97 % 1020,0 hPa 0,0 l/m 0 min 0 min 0 W/m 0,0 km/h (0 Bft) 95,74 %
20.11.2019 01:22 0,6 C 0,0 C -0,6 C 97 % 1020,0 hPa 0,0 l/m 0 min 0 min 0 W/m 0,0 km/h (0 Bft) 95,65 %
20.11.2019 01:24 0,6 C 0,6 C -0,6 C 97 % 1020,0 hPa 0,0 l/m 0 min 0 min 0 W/m 0,0 km/h (0 Bft) 95,74 %
20.11.2019 01:26 0,6 C 0,6 C -0,6 C 97 % 1020,0 hPa 0,0 l/m 0 min 0 min 0 W/m 3,2 km/h (1 Bft) 93,62 %
20.11.2019 01:28 0,6 C 0,6 C 0,0 C 97 % 1020,0 hPa 0,0 l/m 0 min 0 min 0 W/m 6,4 km/h (2 Bft) 93,62 %
20.11.2019 01:30 0,7 C 0,6 C 0,0 C 97 % 1020,0 hPa 0,0 l/m 0 min 0 min 0 W/m 12,9 km/h (3 Bft) 93,62 %
20.11.2019 01:32 0,8 C 0,6 C 0,0 C 97 % 1020,1 hPa 0,0 l/m 0 min 0 min 0 W/m 6,4 km/h (2 Bft) 95,74 %
20.11.2019 01:34 0,9 C 0,6 C 0,0 C 97 % 1020,0 hPa 0,0 l/m 0 min 0 min 0 W/m 6,4 km/h (2 Bft) 97,83 %
20.11.2019 01:36 0,9 C 0,6 C 0,0 C 97 % 1020,0 hPa 0,0 l/m 0 min 0 min 0 W/m 0,0 km/h (0 Bft) 95,74 %
20.11.2019 01:38 1,0 C 0,6 C 0,0 C 97 % 1020,1 hPa 0,0 l/m 0 min 0 min 0 W/m 6,4 km/h (2 Bft) 93,62 %
20.11.2019 01:40 1,1 C 0,6 C 0,0 C 97 % 1020,0 hPa 0,0 l/m 0 min 0 min 0 W/m 3,2 km/h (1 Bft) 91,49 %
20.11.2019 01:42 1,1 C 0,6 C 0,0 C 97 % 1020,0 hPa 0,0 l/m 0 min 0 min 0 W/m 3,2 km/h (1 Bft) 95,74 %
20.11.2019 01:44 1,1 C 0,6 C 0,0 C 97 % 1020,0 hPa 0,0 l/m 0 min 0 min 0 W/m 3,2 km/h (1 Bft) 93,62 %
20.11.2019 01:46 1,2 C 0,6 C 0,0 C 97 % 1020,0 hPa 0,0 l/m 0 min 0 min 0 W/m 0,0 km/h (0 Bft) 95,65 %
20.11.2019 01:48 1,2 C 0,6 C 0,0 C 97 % 1020,1 hPa 0,0 l/m 0 min 0 min 0 W/m 0,0 km/h (0 Bft) 95,74 %
20.11.2019 01:50 1,2 C 0,6 C 0,0 C 97 % 1020,0 hPa 0,0 l/m 0 min 0 min 0 W/m 0,0 km/h (0 Bft) 93,62 %
20.11.2019 01:52 1,2 C 0,6 C 0,0 C 98 % 1020,0 hPa 0,0 l/m 0 min 0 min 0 W/m 0,0 km/h (0 Bft) 95,74 %
20.11.2019 01:54 1,2 C 0,6 C 0,0 C 98 % 1020,0 hPa 0,0 l/m 0 min 0 min 0 W/m 0,0 km/h (0 Bft) 93,62 %
20.11.2019 01:56 1,2 C 0,6 C 0,0 C 98 % 1020,0 hPa 0,0 l/m 0 min 0 min 0 W/m 3,2 km/h (1 Bft) 93,62 %
20.11.2019 01:58 1,2 C 0,0 C 0,0 C 98 % 1020,0 hPa 0,0 l/m 0 min 0 min 0 W/m 0,0 km/h (0 Bft) 93,48 %
20.11.2019 02:00 1,3 C 0,0 C 0,0 C 98 % 1020,0 hPa 0,0 l/m 0 min 0 min 0 W/m 0,0 km/h (0 Bft) 95,74 %
20.11.2019 02:02 1,3 C 0,0 C -0,6 C 98 % 1020,0 hPa 0,0 l/m 0 min 0 min 0 W/m 0,0 km/h (0 Bft) 93,62 %
20.11.2019 02:04 1,3 C 0,0 C -0,6 C 98 % 1020,0 hPa 0,0 l/m 0 min 0 min 0 W/m 3,2 km/h (1 Bft) 93,62 %
20.11.2019 02:06 1,3 C 0,0 C -0,6 C 98 % 1020,0 hPa 0,0 l/m 0 min 0 min 0 W/m 0,0 km/h (0 Bft) 93,62 %
20.11.2019 02:08 1,3 C 0,0 C -0,6 C 98 % 1020,0 hPa 0,0 l/m 0 min 0 min 0 W/m 0,0 km/h (0 Bft) 93,48 %
20.11.2019 02:10 1,3 C 0,0 C -0,6 C 98 % 1020,0 hPa 0,0 l/m 0 min 0 min 0 W/m 0,0 km/h (0 Bft) 95,74 %
20.11.2019 02:12 1,3 C -0,6 C -0,6 C 98 % 1020,0 hPa 0,0 l/m 0 min 0 min 0 W/m 0,0 km/h (0 Bft) 52,27 %
20.11.2019 02:14 1,2 C -0,6 C -0,6 C 98 % 1020,0 hPa 0,0 l/m 0 min 0 min 0 W/m 0,0 km/h (0 Bft) 92,86 %
20.11.2019 02:16 1,2 C -0,6 C -1,1 C 98 % 1020,0 hPa 0,0 l/m 0 min 0 min 0 W/m 0,0 km/h (0 Bft) 97,87 %
20.11.2019 02:18 1,2 C -0,6 C -1,1 C 98 % 1020,0 hPa 0,0 l/m 0 min 0 min 0 W/m 3,2 km/h (1 Bft) 91,49 %
20.11.2019 02:20 1,2 C -0,6 C -1,1 C 98 % 1020,0 hPa 0,0 l/m 0 min 0 min 0 W/m 0,0 km/h (0 Bft) 95,65 %
20.11.2019 02:22 1,2 C -0,6 C -1,1 C 98 % 1020,0 hPa 0,0 l/m 0 min 0 min 0 W/m 0,0 km/h (0 Bft) 95,74 %
20.11.2019 02:24 1,2 C -1,1 C -1,1 C 98 % 1020,0 hPa 0,0 l/m 0 min 0 min 0 W/m 0,0 km/h (0 Bft) 97,87 %
20.11.2019 02:26 1,1 C -1,1 C -1,1 C 98 % 1020,1 hPa 0,0 l/m 0 min 0 min 0 W/m 0,0 km/h (0 Bft) 91,49 %
20.11.2019 02:28 1,1 C -0,6 C -1,1 C 98 % 1020,0 hPa 0,0 l/m 0 min 0 min 0 W/m 0,0 km/h (0 Bft) 93,62 %
20.11.2019 02:30 1,1 C -1,1 C -1,1 C 97 % 1020,0 hPa 0,0 l/m 0 min 0 min 0 W/m 0,0 km/h (0 Bft) 97,87 %
20.11.2019 02:32 1,1 C -1,1 C -1,7 C 97 % 1020,0 hPa 0,0 l/m 0 min 0 min 0 W/m 0,0 km/h (0 Bft) 91,30 %
20.11.2019 02:34 1,1 C -0,6 C -1,7 C 97 % 1020,0 hPa 0,0 l/m 0 min 0 min 0 W/m 0,0 km/h (0 Bft) 95,74 %
20.11.2019 02:36 1,0 C -0,6 C -1,7 C 97 % 1020,0 hPa 0,0 l/m 0 min 0 min 0 W/m 0,0 km/h (0 Bft) 93,62 %
20.11.2019 02:38 1,0 C -0,6 C -1,7 C 97 % 1020,0 hPa 0,0 l/m 0 min 0 min 0 W/m 0,0 km/h (0 Bft) 97,87 %
20.11.2019 02:40 0,9 C -0,6 C -1,7 C 97 % 1020,0 hPa 0,0 l/m 0 min 0 min 0 W/m 0,0 km/h (0 Bft) 93,62 %
20.11.2019 02:42 0,9 C -0,6 C -1,7 C 97 % 1020,0 hPa 0,0 l/m 0 min 0 min 0 W/m 0,0 km/h (0 Bft) 97,87 %
20.11.2019 02:44 0,9 C -0,6 C -1,1 C 98 % 1020,0 hPa 0,0 l/m 0 min 0 min 0 W/m 0,0 km/h (0 Bft) 95,65 %
20.11.2019 02:46 0,8 C -0,6 C -1,1 C 98 % 1020,1 hPa 0,0 l/m 0 min 0 min 0 W/m 0,0 km/h (0 Bft) 100,00 %
20.11.2019 02:48 0,8 C -0,6 C -1,1 C 98 % 1020,1 hPa 0,0 l/m 0 min 0 min 0 W/m 3,2 km/h (1 Bft) 97,87 %
20.11.2019 02:50 0,8 C 0,0 C -0,6 C 97 % 1020,2 hPa 0,0 l/m 0 min 0 min 0 W/m 3,2 km/h (1 Bft) 100,00 %
20.11.2019 02:52 0,8 C 0,0 C -0,6 C 97 % 1020,2 hPa 0,0 l/m 0 min 0 min 0 W/m 3,2 km/h (1 Bft) 97,87 %
20.11.2019 02:54 0,8 C 0,0 C -0,6 C 97 % 1020,2 hPa 0,0 l/m 0 min 0 min 0 W/m 0,0 km/h (0 Bft) 100,00 %
20.11.2019 02:56 0,7 C 0,0 C -0,6 C 97 % 1020,2 hPa 0,0 l/m 0 min 0 min 0 W/m 3,2 km/h (1 Bft) 100,00 %
20.11.2019 02:58 0,7 C 0,0 C -0,6 C 97 % 1020,3 hPa 0,0 l/m 0 min 0 min 0 W/m 0,0 km/h (0 Bft) 97,87 %
20.11.2019 03:00 0,7 C 0,0 C -0,6 C 97 % 1020,2 hPa 0,0 l/m 0 min 0 min 0 W/m 0,0 km/h (0 Bft) 97,87 %
20.11.2019 03:02 0,7 C 0,0 C -0,6 C 97 % 1020,2 hPa 0,0 l/m 0 min 0 min 0 W/m 0,0 km/h (0 Bft) 97,87 %
20.11.2019 03:04 0,7 C 0,0 C -0,6 C 98 % 1020,3 hPa 0,0 l/m 0 min 0 min 0 W/m 3,2 km/h (1 Bft) 95,74 %
20.11.2019 03:06 0,7 C 0,0 C -0,6 C 98 % 1020,2 hPa 0,0 l/m 0 min 0 min 0 W/m 12,9 km/h (3 Bft) 95,65 %
20.11.2019 03:08 0,7 C 0,0 C -0,6 C 98 % 1020,2 hPa 0,0 l/m 0 min 0 min 0 W/m 6,4 km/h (2 Bft) 100,00 %
20.11.2019 03:10 0,7 C 0,0 C -0,6 C 98 % 1020,1 hPa 0,0 l/m 0 min 0 min 0 W/m 6,4 km/h (2 Bft) 100,00 %
20.11.2019 03:12 0,7 C 0,0 C -0,6 C 98 % 1020,1 hPa 0,0 l/m 0 min 0 min 0 W/m 6,4 km/h (2 Bft) 95,74 %
20.11.2019 03:14 0,7 C 0,0 C -0,6 C 98 % 1020,1 hPa 0,0 l/m 0 min 0 min 0 W/m 3,2 km/h (1 Bft) 100,00 %
20.11.2019 03:16 0,6 C 0,0 C -0,6 C 98 % 1020,1 hPa 0,0 l/m 0 min 0 min 0 W/m 0,0 km/h (0 Bft) 100,00 %
20.11.2019 03:18 0,6 C 0,0 C -0,6 C 98 % 1020,1 hPa 0,0 l/m 0 min 0 min 0 W/m 6,4 km/h (2 Bft) 100,00 %
20.11.2019 03:20 0,6 C 0,0 C -0,6 C 98 % 1020,1 hPa 0,0 l/m 0 min 0 min 0 W/m 3,2 km/h (1 Bft) 100,00 %
20.11.2019 03:22 0,6 C 0,0 C -0,6 C 98 % 1020,1 hPa 0,0 l/m 0 min 0 min 0 W/m 3,2 km/h (1 Bft) 100,00 %
20.11.2019 03:24 0,6 C -0,6 C -0,6 C 98 % 1020,1 hPa 0,0 l/m 0 min 0 min 0 W/m 3,2 km/h (1 Bft) 97,87 %
20.11.2019 03:26 0,6 C 0,0 C -0,6 C 98 % 1020,1 hPa 0,0 l/m 0 min 0 min 0 W/m 6,4 km/h (2 Bft) 97,87 %
20.11.2019 03:28 0,6 C 0,0 C -0,6 C 98 % 1020,1 hPa 0,0 l/m 0 min 0 min 0 W/m 3,2 km/h (1 Bft) 100,00 %
20.11.2019 03:30 0,6 C 0,0 C -0,6 C 98 % 1020,1 hPa 0,0 l/m 0 min 0 min 0 W/m 3,2 km/h (1 Bft) 100,00 %
20.11.2019 03:32 0,6 C 0,0 C -0,6 C 98 % 1020,1 hPa 0,0 l/m 0 min 0 min 0 W/m 0,0 km/h (0 Bft) 100,00 %
20.11.2019 03:34 0,6 C 0,0 C -0,6 C 98 % 1020,1 hPa 0,0 l/m 0 min 0 min 0 W/m 0,0 km/h (0 Bft) 100,00 %
20.11.2019 03:36 0,6 C 0,0 C -0,6 C 98 % 1020,1 hPa 0,0 l/m 0 min 0 min 0 W/m 0,0 km/h (0 Bft) 97,87 %
20.11.2019 03:38 0,6 C 0,0 C -0,6 C 98 % 1020,1 hPa 0,0 l/m 0 min 0 min 0 W/m 3,2 km/h (1 Bft) 97,87 %
20.11.2019 03:40 0,6 C 0,0 C -0,6 C 98 % 1020,1 hPa 0,0 l/m 0 min 0 min 0 W/m 0,0 km/h (0 Bft) 100,00 %
20.11.2019 03:42 0,6 C 0,0 C -0,6 C 98 % 1020,1 hPa 0,0 l/m 0 min 0 min 0 W/m 6,4 km/h (2 Bft) 100,00 %
20.11.2019 03:44 0,6 C 0,0 C -0,6 C 98 % 1020,1 hPa 0,0 l/m 0 min 0 min 0 W/m 0,0 km/h (0 Bft) 95,74 %
20.11.2019 03:46 0,6 C -0,6 C -0,6 C 98 % 1020,0 hPa 0,0 l/m 0 min 0 min 0 W/m 3,2 km/h (1 Bft) 97,87 %
20.11.2019 03:48 0,6 C -0,6 C -0,6 C 98 % 1020,1 hPa 0,0 l/m 0 min 0 min 0 W/m 12,9 km/h (3 Bft) 55,56 %
20.11.2019 03:50 0,6 C -0,6 C -0,6 C 98 % 1020,1 hPa 0,0 l/m 0 min 0 min 0 W/m 6,4 km/h (2 Bft) 97,87 %
20.11.2019 03:52 0,6 C -0,6 C -0,6 C 98 % 1020,1 hPa 0,0 l/m 0 min 0 min 0 W/m 3,2 km/h (1 Bft) 95,65 %
20.11.2019 03:54 0,6 C -0,6 C -0,6 C 98 % 1020,1 hPa 0,0 l/m 0 min 0 min 0 W/m 3,2 km/h (1 Bft) 97,87 %
20.11.2019 03:56 0,6 C -0,6 C -0,6 C 98 % 1020,1 hPa 0,0 l/m 0 min 0 min 0 W/m 3,2 km/h (1 Bft) 100,00 %
20.11.2019 03:58 0,6 C -0,6 C -0,6 C 98 % 1020,1 hPa 0,0 l/m 0 min 0 min 0 W/m 3,2 km/h (1 Bft) 93,62 %
20.11.2019 04:00 0,5 C -0,6 C -0,6 C 98 % 1020,1 hPa 0,0 l/m 0 min 0 min 0 W/m 6,4 km/h (2 Bft) 97,87 %
20.11.2019 04:02 0,5 C -0,6 C -0,6 C 98 % 1020,1 hPa 0,0 l/m 0 min 0 min 0 W/m 3,2 km/h (1 Bft) 96,15 %
20.11.2019 04:04 0,4 C -0,6 C -0,6 C 98 % 1020,1 hPa 0,0 l/m 0 min 0 min 0 W/m 0,0 km/h (0 Bft) 97,83 %
20.11.2019 04:06 0,4 C -0,6 C -0,6 C 98 % 1020,1 hPa 0,0 l/m 0 min 0 min 0 W/m 6,4 km/h (2 Bft) 97,87 %
20.11.2019 04:08 0,4 C -0,6 C -0,6 C 98 % 1020,1 hPa 0,0 l/m 0 min 0 min 0 W/m 3,2 km/h (1 Bft) 97,87 %
20.11.2019 04:10 0,4 C -0,6 C -0,6 C 98 % 1020,1 hPa 0,0 l/m 0 min 0 min 0 W/m 6,4 km/h (2 Bft) 97,87 %
20.11.2019 04:12 0,4 C -0,6 C -0,6 C 98 % 1020,1 hPa 0,0 l/m 0 min 0 min 0 W/m 6,4 km/h (2 Bft) 97,87 %
20.11.2019 04:14 0,4 C -0,6 C -0,6 C 98 % 1020,1 hPa 0,0 l/m 0 min 0 min 0 W/m 6,4 km/h (2 Bft) 97,87 %
20.11.2019 04:16 0,4 C -0,6 C -0,6 C 98 % 1020,1 hPa 0,0 l/m 0 min 0 min 0 W/m 16,1 km/h (3 Bft) 97,83 %
20.11.2019 04:18 0,3 C -0,6 C -0,6 C 98 % 1020,1 hPa 0,0 l/m 0 min 0 min 0 W/m 12,9 km/h (3 Bft) 97,87 %
20.11.2019 04:20 0,3 C -0,6 C -0,6 C 98 % 1020,1 hPa 0,0 l/m 0 min 0 min 0 W/m 12,9 km/h (3 Bft) 97,87 %
20.11.2019 04:22 0,3 C -0,6 C -0,6 C 98 % 1020,1 hPa 0,0 l/m 0 min 0 min 0 W/m 6,4 km/h (2 Bft) 93,62 %
20.11.2019 04:24 0,3 C -0,6 C -0,6 C 98 % 1020,1 hPa 0,0 l/m 0 min 0 min 0 W/m 16,1 km/h (3 Bft) 97,87 %
20.11.2019 04:26 0,3 C -0,6 C -0,6 C 98 % 1020,1 hPa 0,0 l/m 0 min 0 min 0 W/m 6,4 km/h (2 Bft) 95,74 %
20.11.2019 04:28 0,3 C -0,6 C -0,6 C 98 % 1020,1 hPa 0,0 l/m 0 min 0 min 0 W/m 3,2 km/h (1 Bft) 95,65 %
20.11.2019 04:30 0,3 C -0,6 C -0,6 C 98 % 1020,0 hPa 0,0 l/m 0 min 0 min 0 W/m 0,0 km/h (0 Bft) 97,87 %
20.11.2019 04:32 0,3 C -0,6 C -0,6 C 98 % 1020,1 hPa 0,0 l/m 0 min 0 min 0 W/m 0,0 km/h (0 Bft) 100,00 %
20.11.2019 04:34 0,3 C -0,6 C -0,6 C 98 % 1020,1 hPa 0,0 l/m 0 min 0 min 0 W/m 0,0 km/h (0 Bft) 95,74 %
20.11.2019 04:36 0,2 C -0,6 C -0,6 C 98 % 1020,0 hPa 0,0 l/m 0 min 0 min 0 W/m 0,0 km/h (0 Bft) 47,62 %
20.11.2019 04:38 0,2 C -0,6 C -0,6 C 98 % 1020,0 hPa 0,0 l/m 0 min 0 min 0 W/m 0,0 km/h (0 Bft) 93,62 %
20.11.2019 04:40 0,2 C -0,6 C -0,6 C 98 % 1019,9 hPa 0,0 l/m 0 min 0 min 0 W/m 0,0 km/h (0 Bft) 93,48 %
20.11.2019 04:42 0,2 C -0,6 C -0,6 C 98 % 1019,9 hPa 0,0 l/m 0 min 0 min 0 W/m 0,0 km/h (0 Bft) 93,62 %
20.11.2019 04:44 0,2 C -0,6 C -0,6 C 98 % 1020,0 hPa 0,0 l/m 0 min 0 min 0 W/m 0,0 km/h (0 Bft) 95,74 %
20.11.2019 04:46 0,2 C -0,6 C -0,6 C 98 % 1019,9 hPa 0,0 l/m 0 min 0 min 0 W/m 0,0 km/h (0 Bft) 95,74 %
20.11.2019 04:48 0,2 C -0,6 C -0,6 C 98 % 1019,9 hPa 0,0 l/m 0 min 0 min 0 W/m 0,0 km/h (0 Bft) 91,49 %
20.11.2019 04:50 0,2 C -0,6 C -0,6 C 98 % 1019,9 hPa 0,0 l/m 0 min 0 min 0 W/m 3,2 km/h (1 Bft) 93,48 %
20.11.2019 04:52 0,2 C -0,6 C -0,6 C 98 % 1019,9 hPa 0,0 l/m 0 min 0 min 0 W/m 3,2 km/h (1 Bft) 95,74 %
20.11.2019 04:54 0,2 C -0,6 C -0,6 C 98 % 1019,8 hPa 0,0 l/m 0 min 0 min 0 W/m 0,0 km/h (0 Bft) 93,62 %
20.11.2019 04:56 0,2 C -0,6 C -0,6 C 98 % 1019,8 hPa 0,0 l/m 0 min 0 min 0 W/m 0,0 km/h (0 Bft) 95,74 %
20.11.2019 04:58 0,2 C -0,6 C -0,6 C 98 % 1019,9 hPa 0,0 l/m 0 min 0 min 0 W/m 0,0 km/h (0 Bft) 95,74 %
20.11.2019 05:00 0,2 C -0,6 C -0,6 C 98 % 1019,8 hPa 0,0 l/m 0 min 0 min 0 W/m 0,0 km/h (0 Bft) 95,74 %
20.11.2019 05:02 0,2 C -0,6 C -0,6 C 98 % 1019,8 hPa 0,0 l/m 0 min 0 min 0 W/m 0,0 km/h (0 Bft) 93,48 %
20.11.2019 05:04 0,2 C -1,1 C -1,1 C 98 % 1019,7 hPa 0,0 l/m 0 min 0 min 0 W/m 0,0 km/h (0 Bft) 95,74 %
20.11.2019 05:06 0,2 C -1,1 C -1,1 C 98 % 1019,8 hPa 0,0 l/m 0 min 0 min 0 W/m 0,0 km/h (0 Bft) 91,49 %
20.11.2019 05:08 0,2 C -1,1 C -1,1 C 98 % 1019,7 hPa 0,0 l/m 0 min 0 min 0 W/m 0,0 km/h (0 Bft) 95,74 %
20.11.2019 05:10 0,2 C -1,1 C -1,1 C 98 % 1019,7 hPa 0,0 l/m 0 min 0 min 0 W/m 0,0 km/h (0 Bft) 95,74 %
20.11.2019 05:12 0,2 C -1,1 C -1,1 C 98 % 1019,7 hPa 0,0 l/m 0 min 0 min 0 W/m 0,0 km/h (0 Bft) 93,62 %
20.11.2019 05:14 0,2 C -1,1 C -1,1 C 98 % 1019,7 hPa 0,0 l/m 0 min 0 min 0 W/m 0,0 km/h (0 Bft) 95,65 %
20.11.2019 05:16 0,2 C -0,6 C -1,1 C 98 % 1019,6 hPa 0,0 l/m 0 min 0 min 0 W/m 0,0 km/h (0 Bft) 93,62 %
20.11.2019 05:18 0,2 C -0,6 C -0,6 C 98 % 1019,6 hPa 0,0 l/m 0 min 0 min 0 W/m 0,0 km/h (0 Bft) 97,87 %
20.11.2019 05:20 0,2 C -0,6 C -0,6 C 98 % 1019,6 hPa 0,0 l/m 0 min 0 min 0 W/m 0,0 km/h (0 Bft) 100,00 %
20.11.2019 05:22 0,2 C -0,6 C -0,6 C 98 % 1019,5 hPa 0,0 l/m 0 min 0 min 0 W/m 0,0 km/h (0 Bft) 97,87 %
20.11.2019 05:24 0,2 C -0,6 C -0,6 C 98 % 1019,5 hPa 0,0 l/m 0 min 0 min 0 W/m 3,2 km/h (1 Bft) 97,87 %
20.11.2019 05:26 0,2 C -0,6 C -0,6 C 98 % 1019,5 hPa 0,0 l/m 0 min 0 min 0 W/m 0,0 km/h (0 Bft) 95,65 %
20.11.2019 05:29 0,2 C -0,6 C -0,6 C 98 % 1019,5 hPa 0,0 l/m 0 min 0 min 0 W/m 3,2 km/h (1 Bft) 98,59 %
20.11.2019 05:30 0,2 C -0,6 C -0,6 C 98 % 1019,5 hPa 0,0 l/m 0 min 0 min 0 W/m 0,0 km/h (0 Bft) 95,65 %
20.11.2019 05:32 0,2 C -0,6 C -0,6 C 98 % 1019,5 hPa 0,0 l/m 0 min 0 min 0 W/m 0,0 km/h (0 Bft) 100,00 %
20.11.2019 05:34 0,2 C -0,6 C -0,6 C 98 % 1019,5 hPa 0,0 l/m 0 min 0 min 0 W/m 0,0 km/h (0 Bft) 100,00 %
20.11.2019 05:36 0,2 C -0,6 C -0,6 C 98 % 1019,5 hPa 0,0 l/m 0 min 0 min 0 W/m 0,0 km/h (0 Bft) 100,00 %
20.11.2019 05:38 0,2 C -0,6 C -0,6 C 98 % 1019,5 hPa 0,0 l/m 0 min 0 min 0 W/m 3,2 km/h (1 Bft) 100,00 %
20.11.2019 05:40 0,2 C -0,6 C -0,6 C 98 % 1019,5 hPa 0,0 l/m 0 min 0 min 0 W/m 0,0 km/h (0 Bft) 100,00 %
20.11.2019 05:42 0,2 C 0,0 C -0,6 C 98 % 1019,5 hPa 0,0 l/m 0 min 0 min 0 W/m 0,0 km/h (0 Bft) 97,87 %
20.11.2019 05:44 0,3 C 0,0 C -0,6 C 98 % 1019,5 hPa 0,0 l/m 0 min 0 min 0 W/m 0,0 km/h (0 Bft) 100,00 %
20.11.2019 05:46 0,3 C 0,0 C -0,6 C 98 % 1019,6 hPa 0,0 l/m 0 min 0 min 0 W/m 0,0 km/h (0 Bft) 100,00 %
20.11.2019 05:48 0,3 C 0,0 C -0,6 C 98 % 1019,6 hPa 0,0 l/m 0 min 0 min 0 W/m 3,2 km/h (1 Bft) 100,00 %
20.11.2019 05:50 0,3 C 0,0 C -0,6 C 98 % 1019,6 hPa 0,0 l/m 0 min 0 min 0 W/m 3,2 km/h (1 Bft) 100,00 %
20.11.2019 05:52 0,3 C 0,0 C -0,6 C 98 % 1019,6 hPa 0,0 l/m 0 min 0 min 0 W/m 3,2 km/h (1 Bft) 97,87 %
20.11.2019 05:54 0,3 C 0,0 C -0,6 C 98 % 1019,6 hPa 0,0 l/m 0 min 0 min 0 W/m 3,2 km/h (1 Bft) 100,00 %
20.11.2019 05:56 0,3 C 0,0 C -0,6 C 98 % 1019,6 hPa 0,0 l/m 0 min 0 min 0 W/m 0,0 km/h (0 Bft) 97,87 %
20.11.2019 05:58 0,4 C 0,0 C -0,6 C 98 % 1019,6 hPa 0,0 l/m 0 min 0 min 0 W/m 0,0 km/h (0 Bft) 100,00 %
20.11.2019 06:00 0,4 C 0,0 C -0,6 C 98 % 1019,6 hPa 0,0 l/m 0 min 0 min 0 W/m 6,4 km/h (2 Bft) 100,00 %
20.11.2019 06:02 0,4 C 0,0 C -0,6 C 98 % 1019,5 hPa 0,0 l/m 0 min 0 min 0 W/m 3,2 km/h (1 Bft) 97,87 %
20.11.2019 06:04 0,4 C 0,0 C -0,6 C 98 % 1019,6 hPa 0,0 l/m 0 min 0 min 0 W/m 0,0 km/h (0 Bft) 100,00 %
20.11.2019 06:08 0,4 C 0,0 C -0,6 C 98 % 1019,5 hPa 0,0 l/m 0 min 0 min 0 W/m 0,0 km/h (0 Bft) 96,81 %
20.11.2019 06:10 0,4 C 0,0 C -0,6 C 99 % 1019,5 hPa 0,0 l/m 0 min 0 min 0 W/m 0,0 km/h (0 Bft) 100,00 %
20.11.2019 06:12 0,4 C 0,0 C -0,6 C 99 % 1019,5 hPa 0,0 l/m 0 min 0 min 0 W/m 0,0 km/h (0 Bft) 97,83 %
20.11.2019 06:14 0,5 C 0,0 C -0,6 C 99 % 1019,6 hPa 0,0 l/m 0 min 0 min 0 W/m 0,0 km/h (0 Bft) 100,00 %
20.11.2019 06:16 0,5 C 0,0 C -0,6 C 99 % 1019,6 hPa 0,0 l/m 0 min 0 min 0 W/m 0,0 km/h (0 Bft) 100,00 %
20.11.2019 06:18 0,5 C 0,0 C -0,6 C 99 % 1019,5 hPa 0,0 l/m 0 min 0 min 0 W/m 0,0 km/h (0 Bft) 100,00 %
20.11.2019 06:20 0,5 C 0,0 C -0,6 C 99 % 1019,5 hPa 0,0 l/m 0 min 0 min 0 W/m 0,0 km/h (0 Bft) 97,87 %
20.11.2019 06:22 0,5 C 0,0 C -0,6 C 99 % 1019,5 hPa 0,0 l/m 0 min 0 min 0 W/m 0,0 km/h (0 Bft) 95,74 %
20.11.2019 06:24 0,5 C 0,0 C -0,6 C 99 % 1019,6 hPa 0,0 l/m 0 min 0 min 0 W/m 0,0 km/h (0 Bft) 97,83 %
20.11.2019 06:26 0,5 C 0,0 C -0,6 C 99 % 1019,6 hPa 0,0 l/m 0 min 0 min 0 W/m 0,0 km/h (0 Bft) 100,00 %
20.11.2019 06:28 0,5 C 0,0 C -0,6 C 99 % 1019,6 hPa 0,0 l/m 0 min 0 min 0 W/m 0,0 km/h (0 Bft) 100,00 %
20.11.2019 06:30 0,5 C 0,0 C -0,6 C 99 % 1019,6 hPa 0,0 l/m 0 min 0 min 0 W/m 0,0 km/h (0 Bft) 97,87 %
20.11.2019 06:32 0,5 C 0,0 C -0,6 C 99 % 1019,5 hPa 0,0 l/m 0 min 0 min 0 W/m 0,0 km/h (0 Bft) 95,74 %
20.11.2019 06:34 0,5 C 0,0 C -0,6 C 99 % 1019,5 hPa 0,0 l/m 0 min 0 min 0 W/m 0,0 km/h (0 Bft) 97,83 %
20.11.2019 06:36 0,5 C 0,0 C -0,6 C 99 % 1019,5 hPa 0,0 l/m 0 min 0 min 0 W/m 0,0 km/h (0 Bft) 97,87 %
20.11.2019 06:38 0,5 C 0,0 C -0,6 C 99 % 1019,5 hPa 0,0 l/m 0 min 0 min 0 W/m 0,0 km/h (0 Bft) 95,74 %
20.11.2019 06:40 0,5 C 0,0 C -0,6 C 99 % 1019,5 hPa 0,0 l/m 0 min 0 min 0 W/m 0,0 km/h (0 Bft) 97,87 %
20.11.2019 06:42 0,5 C -0,6 C -0,6 C 99 % 1019,5 hPa 0,0 l/m 0 min 0 min 0 W/m 0,0 km/h (0 Bft) 97,87 %
20.11.2019 06:44 0,5 C -0,6 C -0,6 C 99 % 1019,4 hPa 0,0 l/m 0 min 0 min 0 W/m 0,0 km/h (0 Bft) 97,87 %
20.11.2019 06:46 0,5 C -0,6 C -0,6 C 99 % 1019,4 hPa 0,0 l/m 0 min 0 min 0 W/m 0,0 km/h (0 Bft) 97,83 %
20.11.2019 06:48 0,5 C -0,6 C -0,6 C 99 % 1019,5 hPa 0,0 l/m 0 min 0 min 0 W/m 0,0 km/h (0 Bft) 97,87 %
20.11.2019 06:50 0,5 C -0,6 C -0,6 C 99 % 1019,5 hPa 0,0 l/m 0 min 0 min 0 W/m 0,0 km/h (0 Bft) 97,87 %
20.11.2019 06:52 0,5 C -0,6 C -0,6 C 99 % 1019,4 hPa 0,0 l/m 0 min 0 min 0 W/m 0,0 km/h (0 Bft) 97,87 %
20.11.2019 06:54 0,5 C -0,6 C -0,6 C 99 % 1019,4 hPa 0,0 l/m 0 min 0 min 0 W/m 0,0 km/h (0 Bft) 97,87 %
20.11.2019 06:56 0,5 C -0,6 C -1,1 C 99 % 1019,4 hPa 0,0 l/m 0 min 0 min 0 W/m 0,0 km/h (0 Bft) 97,87 %
20.11.2019 06:58 0,5 C -1,1 C -1,1 C 99 % 1019,4 hPa 0,0 l/m 0 min 0 min 0 W/m 0,0 km/h (0 Bft) 97,83 %
20.11.2019 07:00 0,4 C -1,1 C -1,1 C 99 % 1019,4 hPa 0,0 l/m 0 min 0 min 0 W/m 0,0 km/h (0 Bft) 97,87 %
20.11.2019 07:02 0,4 C -1,1 C -1,1 C 99 % 1019,4 hPa 0,0 l/m 0 min 0 min 0 W/m 0,0 km/h (0 Bft) 97,87 %
20.11.2019 07:04 0,4 C -1,1 C -1,1 C 99 % 1019,3 hPa 0,0 l/m 0 min 0 min 0 W/m 0,0 km/h (0 Bft) 97,87 %
20.11.2019 07:06 0,4 C -1,1 C -1,1 C 99 % 1019,3 hPa 0,0 l/m 0 min 0 min 0 W/m 0,0 km/h (0 Bft) 97,87 %
20.11.2019 07:08 0,4 C -1,1 C -1,1 C 99 % 1019,4 hPa 0,0 l/m 0 min 0 min 0 W/m 0,0 km/h (0 Bft) 93,62 %
20.11.2019 07:10 0,4 C -1,1 C -1,1 C 99 % 1019,3 hPa 0,0 l/m 0 min 0 min 0 W/m 0,0 km/h (0 Bft) 95,65 %
20.11.2019 07:12 0,4 C -1,1 C -1,1 C 99 % 1019,4 hPa 0,0 l/m 0 min 0 min 0 W/m 0,0 km/h (0 Bft) 93,62 %
20.11.2019 07:14 0,3 C -1,1 C -1,7 C 99 % 1019,4 hPa 0,0 l/m 0 min 0 min 0 W/m 0,0 km/h (0 Bft) 95,74 %
20.11.2019 07:16 0,3 C -1,1 C -1,7 C 99 % 1019,4 hPa 0,0 l/m 0 min 0 min 0 W/m 0,0 km/h (0 Bft) 95,74 %
20.11.2019 07:18 0,3 C -1,1 C -1,1 C 99 % 1019,4 hPa 0,0 l/m 0 min 0 min 0 W/m 0,0 km/h (0 Bft) 97,87 %
20.11.2019 07:20 0,3 C -1,1 C -1,7 C 99 % 1019,5 hPa 0,0 l/m 0 min 0 min 0 W/m 0,0 km/h (0 Bft) 95,74 %
20.11.2019 07:22 0,3 C -1,1 C -1,7 C 99 % 1019,4 hPa 0,0 l/m 0 min 0 min 0 W/m 0,0 km/h (0 Bft) 97,83 %
20.11.2019 07:24 0,2 C -1,7 C -1,7 C 99 % 1019,3 hPa 0,0 l/m 0 min 0 min 0 W/m 0,0 km/h (0 Bft) 97,87 %
20.11.2019 07:26 0,2 C -1,7 C -1,7 C 99 % 1019,4 hPa 0,0 l/m 0 min 0 min 0 W/m 0,0 km/h (0 Bft) 97,87 %
20.11.2019 07:28 0,2 C -1,1 C -1,7 C 99 % 1019,4 hPa 0,0 l/m 0 min 0 min 0 W/m 0,0 km/h (0 Bft) 95,74 %
20.11.2019 07:30 0,2 C -1,1 C -1,7 C 99 % 1019,4 hPa 0,0 l/m 0 min 0 min 0 W/m 0,0 km/h (0 Bft) 95,74 %
20.11.2019 07:32 0,1 C -1,1 C -1,7 C 99 % 1019,5 hPa 0,0 l/m 0 min 0 min 0 W/m 0,0 km/h (0 Bft) 97,83 %
20.11.2019 07:34 0,1 C -1,1 C -1,7 C 99 % 1019,5 hPa 0,0 l/m 0 min 0 min 0 W/m 0,0 km/h (0 Bft) 97,87 %
20.11.2019 07:36 0,1 C -1,1 C -1,7 C 99 % 1019,5 hPa 0,0 l/m 0 min 0 min 0 W/m 0,0 km/h (0 Bft) 97,87 %
20.11.2019 07:38 0,0 C -1,1 C -1,7 C 99 % 1019,4 hPa 0,0 l/m 0 min 0 min 0 W/m 0,0 km/h (0 Bft) 95,74 %
20.11.2019 07:40 -0,1 C -1,7 C -1,7 C 99 % 1019,4 hPa 0,0 l/m 0 min 0 min 0 W/m 0,0 km/h (0 Bft) 97,87 %
20.11.2019 07:42 -0,1 C -1,7 C -1,7 C 99 % 1019,4 hPa 0,0 l/m 0 min 0 min 0 W/m 0,0 km/h (0 Bft) 97,87 %
20.11.2019 07:44 -0,1 C -1,7 C -1,7 C 99 % 1019,3 hPa 0,0 l/m 0 min 0 min 0 W/m 0,0 km/h (0 Bft) 95,65 %
20.11.2019 07:46 -0,1 C -1,7 C -1,7 C 99 % 1019,3 hPa 0,0 l/m 0 min 0 min 0 W/m 0,0 km/h (0 Bft) 97,87 %
20.11.2019 07:48 -0,1 C -1,7 C -1,7 C 99 % 1019,4 hPa 0,0 l/m 0 min 0 min 0 W/m 0,0 km/h (0 Bft) 30,00 %
20.11.2019 07:50 -0,2 C -1,7 C -1,7 C 99 % 1019,4 hPa 0,0 l/m 0 min 0 min 0 W/m 0,0 km/h (0 Bft) 97,67 %
20.11.2019 07:52 -0,2 C -1,7 C -1,7 C 99 % 1019,4 hPa 0,0 l/m 0 min 0 min 0 W/m 0,0 km/h (0 Bft) 95,74 %
20.11.2019 07:54 -0,2 C -1,7 C -1,7 C 99 % 1019,4 hPa 0,0 l/m 0 min 0 min 0 W/m 0,0 km/h (0 Bft) 93,62 %
20.11.2019 07:55 -0,2 C -1,7 C -1,7 C 99 % 1019,4 hPa 0,0 l/m 0 min 0 min 0 W/m 0,0 km/h (0 Bft) 97,37 %
20.11.2019 07:58 -0,2 C -1,7 C -1,7 C 99 % 1019,4 hPa 0,0 l/m 0 min 0 min 0 W/m 0,0 km/h (0 Bft) 92,50 %
20.11.2019 08:00 -0,2 C -1,1 C -1,7 C 99 % 1019,4 hPa 0,0 l/m 0 min 0 min 0 W/m 0,0 km/h (0 Bft) 93,62 %
20.11.2019 08:02 -0,3 C -1,1 C -1,7 C 99 % 1019,4 hPa 0,0 l/m 0 min 0 min 0 W/m 0,0 km/h (0 Bft) 97,87 %
20.11.2019 08:04 -0,3 C -1,1 C -1,7 C 99 % 1019,4 hPa 0,0 l/m 0 min 0 min 5 W/m 0,0 km/h (0 Bft) 97,87 %
20.11.2019 08:06 -0,3 C -1,1 C -1,7 C 99 % 1019,4 hPa 0,0 l/m 0 min 0 min 5 W/m 0,0 km/h (0 Bft) 97,83 %
20.11.2019 08:08 -0,3 C -1,1 C -1,7 C 99 % 1019,4 hPa 0,0 l/m 0 min 0 min 5 W/m 0,0 km/h (0 Bft) 97,87 %
20.11.2019 08:10 -0,3 C -1,1 C -1,7 C 99 % 1019,4 hPa 0,0 l/m 0 min 0 min 6 W/m 0,0 km/h (0 Bft) 97,87 %
20.11.2019 08:12 -0,4 C -1,1 C -1,7 C 99 % 1019,4 hPa 0,0 l/m 0 min 0 min 7 W/m 0,0 km/h (0 Bft) 95,74 %
20.11.2019 08:14 -0,4 C -1,1 C -1,7 C 99 % 1019,3 hPa 0,0 l/m 0 min 0 min 8 W/m 0,0 km/h (0 Bft) 95,74 %
20.11.2019 08:16 -0,4 C -1,1 C -1,7 C 99 % 1019,3 hPa 0,0 l/m 0 min 0 min 9 W/m 0,0 km/h (0 Bft) 97,87 %
20.11.2019 08:18 -0,4 C -1,1 C -1,7 C 99 % 1019,3 hPa 0,0 l/m 0 min 0 min 10 W/m 0,0 km/h (0 Bft) 97,83 %
20.11.2019 08:20 -0,4 C -1,1 C -1,7 C 99 % 1019,3 hPa 0,0 l/m 0 min 0 min 11 W/m 0,0 km/h (0 Bft) 97,87 %
20.11.2019 08:22 -0,4 C -1,1 C -1,7 C 99 % 1019,3 hPa 0,0 l/m 0 min 0 min 12 W/m 0,0 km/h (0 Bft) 97,87 %
20.11.2019 08:24 -0,4 C -1,1 C -1,7 C 99 % 1019,3 hPa 0,0 l/m 0 min 0 min 13 W/m 0,0 km/h (0 Bft) 97,87 %
20.11.2019 08:26 -0,4 C -1,1 C -1,7 C 99 % 1019,3 hPa 0,0 l/m 0 min 0 min 14 W/m 0,0 km/h (0 Bft) 95,74 %
20.11.2019 08:28 -0,5 C -1,1 C -1,7 C 99 % 1019,3 hPa 0,0 l/m 0 min 0 min 14 W/m 0,0 km/h (0 Bft) 97,87 %
20.11.2019 08:30 -0,5 C -1,1 C -1,7 C 99 % 1019,3 hPa 0,0 l/m 0 min 0 min 17 W/m 0,0 km/h (0 Bft) 97,83 %
20.11.2019 08:32 -0,5 C -1,1 C -1,7 C 99 % 1019,3 hPa 0,0 l/m 0 min 0 min 18 W/m 0,0 km/h (0 Bft) 97,87 %
20.11.2019 08:34 -0,5 C -1,1 C -1,7 C 99 % 1019,3 hPa 0,0 l/m 0 min 0 min 18 W/m 0,0 km/h (0 Bft) 52,17 %
20.11.2019 08:36 -0,5 C -1,1 C -1,7 C 99 % 1019,2 hPa 0,0 l/m 0 min 0 min 21 W/m 0,0 km/h (0 Bft) 97,87 %
20.11.2019 08:38 -0,5 C -1,1 C -1,7 C 99 % 1019,4 hPa 0,0 l/m 0 min 0 min 20 W/m 0,0 km/h (0 Bft) 97,87 %
20.11.2019 08:40 -0,5 C -1,1 C -1,7 C 99 % 1019,4 hPa 0,0 l/m 0 min 0 min 24 W/m 0,0 km/h (0 Bft) 97,87 %
20.11.2019 08:42 -0,5 C -1,1 C -1,1 C 99 % 1019,3 hPa 0,0 l/m 0 min 0 min 27 W/m 0,0 km/h (0 Bft) 97,83 %
20.11.2019 08:44 -0,5 C -1,1 C -1,1 C 99 % 1019,3 hPa 0,0 l/m 0 min 0 min 26 W/m 0,0 km/h (0 Bft) 97,87 %
20.11.2019 08:46 -0,5 C -1,1 C -1,7 C 99 % 1019,3 hPa 0,0 l/m 0 min 0 min 28 W/m 0,0 km/h (0 Bft) 97,87 %
20.11.2019 08:48 -0,5 C -1,1 C -1,1 C 99 % 1019,3 hPa 0,0 l/m 0 min 0 min 30 W/m 0,0 km/h (0 Bft) 97,87 %
20.11.2019 08:50 -0,5 C -1,1 C -1,1 C 99 % 1019,3 hPa 0,0 l/m 0 min 0 min 31 W/m 0,0 km/h (0 Bft) 95,74 %
20.11.2019 08:52 -0,5 C -1,1 C -1,7 C 99 % 1019,3 hPa 0,0 l/m 0 min 0 min 33 W/m 0,0 km/h (0 Bft) 97,83 %
20.11.2019 08:54 -0,5 C -1,1 C -1,1 C 99 % 1019,3 hPa 0,0 l/m 0 min 0 min 34 W/m 0,0 km/h (0 Bft) 100,00 %
20.11.2019 08:56 -0,5 C -1,1 C -1,1 C 99 % 1019,3 hPa 0,0 l/m 0 min 0 min 39 W/m 0,0 km/h (0 Bft) 93,62 %
20.11.2019 08:58 -0,5 C -1,1 C -1,7 C 99 % 1019,2 hPa 0,0 l/m 0 min 0 min 39 W/m 0,0 km/h (0 Bft) 97,87 %
20.11.2019 09:00 -0,5 C -1,1 C -1,1 C 99 % 1019,3 hPa 0,0 l/m 0 min 0 min 40 W/m 0,0 km/h (0 Bft) 100,00 %
20.11.2019 09:02 -0,5 C -1,1 C -1,1 C 99 % 1019,4 hPa 0,0 l/m 0 min 0 min 40 W/m 0,0 km/h (0 Bft) 100,00 %
20.11.2019 09:04 -0,5 C -1,1 C -1,1 C 99 % 1019,4 hPa 0,0 l/m 0 min 0 min 50 W/m 0,0 km/h (0 Bft) 97,83 %
20.11.2019 09:06 -0,5 C -1,1 C -1,1 C 99 % 1019,3 hPa 0,0 l/m 2 min 0 min 71 W/m 0,0 km/h (0 Bft) 95,74 %
20.11.2019 09:08 -0,4 C -1,1 C -1,1 C 99 % 1019,3 hPa 0,0 l/m 2 min 0 min 77 W/m 0,0 km/h (0 Bft) 95,74 %
20.11.2019 09:10 -0,4 C -1,1 C -1,1 C 99 % 1019,3 hPa 0,0 l/m 0 min 0 min 48 W/m 0,0 km/h (0 Bft) 100,00 %
20.11.2019 09:12 -0,4 C -0,6 C -1,1 C 99 % 1019,3 hPa 0,0 l/m 0 min 0 min 48 W/m 0,0 km/h (0 Bft) 100,00 %
20.11.2019 09:14 -0,4 C -0,6 C -1,1 C 99 % 1019,3 hPa 0,0 l/m 2 min 0 min 74 W/m 0,0 km/h (0 Bft) 97,87 %
20.11.2019 09:16 -0,4 C 0,0 C -1,1 C 99 % 1019,3 hPa 0,0 l/m 2 min 0 min 98 W/m 0,0 km/h (0 Bft) 97,83 %
20.11.2019 09:18 -0,4 C 0,6 C -1,1 C 99 % 1019,3 hPa 0,0 l/m 2 min 0 min 103 W/m 0,0 km/h (0 Bft) 74,47 %
20.11.2019 09:20 -0,4 C 1,1 C -1,1 C 99 % 1019,3 hPa 0,0 l/m 2 min 0 min 100 W/m 0,0 km/h (0 Bft) 74,29 %
20.11.2019 09:22 -0,4 C 1,7 C -1,1 C 99 % 1019,3 hPa 0,0 l/m 2 min 0 min 95 W/m 0,0 km/h (0 Bft) 97,87 %
20.11.2019 09:24 -0,4 C 2,2 C -1,1 C 99 % 1019,3 hPa 0,0 l/m 2 min 0 min 108 W/m 0,0 km/h (0 Bft) 95,74 %
20.11.2019 09:26 -0,3 C 2,2 C -1,1 C 99 % 1019,3 hPa 0,0 l/m 2 min 0 min 108 W/m 0,0 km/h (0 Bft) 97,87 %
20.11.2019 09:28 -0,3 C 2,8 C -1,1 C 99 % 1019,3 hPa 0,2 l/m 2 min 0 min 111 W/m 0,0 km/h (0 Bft) 95,65 %
20.11.2019 09:30 -0,3 C 2,2 C -1,1 C 99 % 1019,3 hPa 0,0 l/m 2 min 0 min 118 W/m 0,0 km/h (0 Bft) 97,87 %
20.11.2019 09:32 -0,2 C 2,2 C -1,1 C 99 % 1019,4 hPa 0,0 l/m 2 min 0 min 103 W/m 0,0 km/h (0 Bft) 97,87 %
20.11.2019 09:34 -0,2 C 2,2 C -1,1 C 99 % 1019,4 hPa 0,0 l/m 2 min 0 min 117 W/m 0,0 km/h (0 Bft) 95,74 %
20.11.2019 09:36 -0,1 C 2,2 C -0,6 C 99 % 1019,3 hPa 0,0 l/m 2 min 0 min 116 W/m 0,0 km/h (0 Bft) 95,74 %
20.11.2019 09:38 0,0 C 2,2 C -0,6 C 99 % 1019,4 hPa 0,0 l/m 2 min 0 min 122 W/m 0,0 km/h (0 Bft) 93,62 %
20.11.2019 09:40 0,1 C 1,7 C -0,6 C 99 % 1019,4 hPa 0,0 l/m 2 min 0 min 116 W/m 0,0 km/h (0 Bft) 95,65 %
20.11.2019 09:42 0,1 C 1,1 C -0,6 C 99 % 1019,4 hPa 0,0 l/m 2 min 0 min 118 W/m 0,0 km/h (0 Bft) 95,74 %
20.11.2019 09:44 0,2 C 1,1 C -0,6 C 99 % 1019,4 hPa 0,0 l/m 0 min 0 min 82 W/m 0,0 km/h (0 Bft) 95,74 %
20.11.2019 09:46 0,3 C 1,1 C -0,6 C 99 % 1019,4 hPa 0,0 l/m 0 min 0 min 70 W/m 0,0 km/h (0 Bft) 95,74 %
20.11.2019 09:48 0,3 C 1,1 C -0,6 C 99 % 1019,4 hPa 0,0 l/m 0 min 0 min 67 W/m 0,0 km/h (0 Bft) 93,62 %
20.11.2019 09:50 0,4 C 1,7 C -0,6 C 99 % 1019,4 hPa 0,0 l/m 0 min 0 min 70 W/m 0,0 km/h (0 Bft) 95,65 %
20.11.2019 09:52 0,5 C 2,2 C -0,6 C 99 % 1019,4 hPa 0,0 l/m 0 min 0 min 71 W/m 0,0 km/h (0 Bft) 95,74 %
20.11.2019 09:54 0,6 C 2,2 C -0,6 C 99 % 1019,4 hPa 0,0 l/m 2 min 0 min 115 W/m 0,0 km/h (0 Bft) 93,62 %
20.11.2019 09:56 0,6 C 2,2 C -0,6 C 99 % 1019,4 hPa 0,0 l/m 0 min 0 min 105 W/m 0,0 km/h (0 Bft) 95,74 %
20.11.2019 09:58 0,6 C 2,2 C -0,6 C 99 % 1019,3 hPa 0,0 l/m 2 min 0 min 110 W/m 0,0 km/h (0 Bft) 95,74 %
20.11.2019 10:00 0,6 C 2,2 C -0,6 C 99 % 1019,3 hPa 0,0 l/m 2 min 0 min 114 W/m 0,0 km/h (0 Bft) 95,74 %
20.11.2019 10:02 0,7 C 2,2 C -0,6 C 99 % 1019,3 hPa 0,0 l/m 2 min 0 min 116 W/m 0,0 km/h (0 Bft) 93,48 %
20.11.2019 10:04 0,8 C 2,8 C 0,0 C 99 % 1019,3 hPa 0,0 l/m 2 min 0 min 129 W/m 0,0 km/h (0 Bft) 95,74 %
20.11.2019 10:06 0,8 C 3,3 C 0,0 C 99 % 1019,3 hPa 0,0 l/m 2 min 0 min 161 W/m 0,0 km/h (0 Bft) 93,62 %
20.11.2019 10:08 0,9 C 3,9 C 0,0 C 99 % 1019,3 hPa 0,0 l/m 2 min 0 min 136 W/m 0,0 km/h (0 Bft) 97,87 %
20.11.2019 10:10 0,9 C 4,4 C 0,0 C 99 % 1019,3 hPa 0,0 l/m 2 min 0 min 164 W/m 0,0 km/h (0 Bft) 97,87 %
20.11.2019 10:12 1,1 C 4,4 C 0,0 C 99 % 1019,3 hPa 0,0 l/m 2 min 0 min 130 W/m 0,0 km/h (0 Bft) 48,78 %
20.11.2019 10:14 1,1 C 5,0 C 0,6 C 99 % 1019,3 hPa 0,0 l/m 2 min 0 min 186 W/m 0,0 km/h (0 Bft) 97,83 %
20.11.2019 10:16 1,3 C 5,0 C 0,6 C 99 % 1019,3 hPa 0,0 l/m 2 min 0 min 197 W/m 0,0 km/h (0 Bft) 97,87 %
20.11.2019 10:18 1,4 C 5,0 C 1,1 C 99 % 1019,3 hPa 0,0 l/m 2 min 0 min 203 W/m 0,0 km/h (0 Bft) 97,87 %
20.11.2019 10:20 1,6 C 5,6 C 1,1 C 99 % 1019,2 hPa 0,0 l/m 2 min 0 min 209 W/m 0,0 km/h (0 Bft) 97,87 %
20.11.2019 10:22 1,8 C 5,0 C 1,1 C 100 % 1019,2 hPa 0,0 l/m 2 min 0 min 213 W/m 16,1 km/h (3 Bft) 95,74 %
20.11.2019 10:24 2,0 C 5,0 C 1,1 C 99 % 1019,2 hPa 0,0 l/m 2 min 0 min 196 W/m 9,7 km/h (2 Bft) 97,87 %
20.11.2019 10:26 2,2 C 5,0 C 1,7 C 100 % 1019,2 hPa 0,0 l/m 2 min 0 min 209 W/m 12,9 km/h (3 Bft) 97,83 %
20.11.2019 10:28 2,4 C 4,4 C 1,7 C 99 % 1019,2 hPa 0,0 l/m 2 min 0 min 210 W/m 12,9 km/h (3 Bft) 97,87 %
20.11.2019 10:30 2,6 C 4,4 C 1,7 C 100 % 1019,1 hPa 0,0 l/m 2 min 0 min 189 W/m 12,9 km/h (3 Bft) 95,74 %
20.11.2019 10:32 2,7 C 4,4 C 1,7 C 100 % 1019,1 hPa 0,0 l/m 2 min 0 min 141 W/m 12,9 km/h (3 Bft) 95,74 %
20.11.2019 10:34 2,8 C 4,4 C 1,7 C 100 % 1019,1 hPa 0,0 l/m 2 min 0 min 172 W/m 12,9 km/h (3 Bft) 95,74 %
20.11.2019 10:36 2,8 C 5,0 C 1,7 C 100 % 1019,1 hPa 0,0 l/m 2 min 0 min 164 W/m 16,1 km/h (3 Bft) 95,74 %
20.11.2019 10:38 2,9 C 5,0 C 1,7 C 100 % 1019,1 hPa 0,0 l/m 2 min 0 min 178 W/m 12,9 km/h (3 Bft) 95,65 %
20.11.2019 10:40 2,9 C 5,0 C 1,7 C 100 % 1019,0 hPa 0,0 l/m 2 min 0 min 149 W/m 6,4 km/h (2 Bft) 95,74 %
20.11.2019 10:42 3,0 C 5,0 C 1,7 C 100 % 1019,0 hPa 0,0 l/m 2 min 0 min 162 W/m 12,9 km/h (3 Bft) 95,74 %
20.11.2019 10:44 3,1 C 5,0 C 1,7 C 100 % 1019,0 hPa 0,0 l/m 2 min 0 min 218 W/m 6,4 km/h (2 Bft) 95,74 %
20.11.2019 10:46 3,1 C 5,6 C 1,7 C 100 % 1019,0 hPa 0,0 l/m 2 min 0 min 234 W/m 0,0 km/h (0 Bft) 95,74 %
20.11.2019 10:48 3,2 C 5,6 C 1,7 C 100 % 1019,0 hPa 0,0 l/m 2 min 0 min 212 W/m 12,9 km/h (3 Bft) 95,65 %
20.11.2019 10:50 3,2 C 5,6 C 2,2 C 100 % 1019,1 hPa 0,0 l/m 2 min 0 min 197 W/m 6,4 km/h (2 Bft) 95,74 %
20.11.2019 10:52 3,3 C 5,6 C 2,2 C 100 % 1019,1 hPa 0,0 l/m 2 min 0 min 211 W/m 12,9 km/h (3 Bft) 93,62 %
20.11.2019 10:54 3,3 C 5,6 C 2,2 C 100 % 1019,1 hPa 0,0 l/m 2 min 0 min 179 W/m 16,1 km/h (3 Bft) 95,74 %
20.11.2019 10:56 3,4 C 5,6 C 2,2 C 100 % 1019,1 hPa 0,0 l/m 2 min 0 min 218 W/m 16,1 km/h (3 Bft) 95,74 %
20.11.2019 10:58 3,4 C 4,4 C 2,2 C 100 % 1019,1 hPa 0,0 l/m 0 min 0 min 132 W/m 16,1 km/h (3 Bft) 97,87 %
20.11.2019 11:00 3,4 C 4,4 C 2,2 C 100 % 1019,1 hPa 0,0 l/m 0 min 0 min 135 W/m 3,2 km/h (1 Bft) 97,83 %
20.11.2019 11:02 3,4 C 4,4 C 2,8 C 100 % 1019,1 hPa 0,0 l/m 0 min 0 min 146 W/m 0,0 km/h (0 Bft) 97,87 %
20.11.2019 11:04 3,4 C 5,0 C 2,8 C 100 % 1019,0 hPa 0,0 l/m 2 min 0 min 149 W/m 3,2 km/h (1 Bft) 97,87 %
20.11.2019 11:06 3,4 C 5,0 C 2,8 C 100 % 1019,0 hPa 0,0 l/m 0 min 0 min 118 W/m 0,0 km/h (0 Bft) 100,00 %
20.11.2019 11:08 3,5 C 4,4 C 2,2 C 100 % 1018,9 hPa 0,0 l/m 0 min 0 min 108 W/m 6,4 km/h (2 Bft) 97,87 %
20.11.2019 11:10 3,5 C 5,0 C 2,2 C 100 % 1018,9 hPa 0,0 l/m 2 min 0 min 180 W/m 3,2 km/h (1 Bft) 97,87 %
20.11.2019 11:12 3,5 C 4,4 C 2,2 C 100 % 1019,0 hPa 0,0 l/m 2 min 0 min 158 W/m 6,4 km/h (2 Bft) 97,83 %
20.11.2019 11:14 3,5 C 5,0 C 2,2 C 100 % 1018,9 hPa 0,0 l/m 0 min 0 min 138 W/m 0,0 km/h (0 Bft) 100,00 %
20.11.2019 11:16 3,5 C 6,1 C 2,8 C 100 % 1019,0 hPa 0,0 l/m 2 min 0 min 221 W/m 0,0 km/h (0 Bft) 100,00 %
20.11.2019 11:18 3,6 C 7,2 C 2,8 C 100 % 1019,0 hPa 0,0 l/m 2 min 0 min 277 W/m 0,0 km/h (0 Bft) 100,00 %
20.11.2019 11:20 3,6 C 7,2 C 2,8 C 100 % 1019,0 hPa 0,0 l/m 2 min 0 min 243 W/m 0,0 km/h (0 Bft) 95,74 %
20.11.2019 11:22 3,7 C 7,8 C 2,8 C 100 % 1019,0 hPa 0,0 l/m 2 min 0 min 179 W/m 0,0 km/h (0 Bft) 95,74 %
20.11.2019 11:24 3,7 C 8,3 C 2,8 C 100 % 1018,9 hPa 0,0 l/m 2 min 0 min 268 W/m 0,0 km/h (0 Bft) 93,48 %
20.11.2019 11:26 3,8 C 8,9 C 2,8 C 100 % 1018,9 hPa 0,0 l/m 2 min 0 min 262 W/m 0,0 km/h (0 Bft) 100,00 %
20.11.2019 11:28 3,9 C 8,3 C 2,8 C 100 % 1018,9 hPa 0,0 l/m 2 min 0 min 239 W/m 0,0 km/h (0 Bft) 97,87 %
20.11.2019 11:30 3,9 C 7,8 C 2,8 C 100 % 1018,8 hPa 0,0 l/m 2 min 0 min 222 W/m 0,0 km/h (0 Bft) 97,87 %
20.11.2019 11:32 3,9 C 8,3 C 2,8 C 100 % 1018,8 hPa 0,0 l/m 2 min 0 min 266 W/m 0,0 km/h (0 Bft) 95,74 %
20.11.2019 11:34 3,9 C 8,3 C 2,8 C 100 % 1018,8 hPa 0,0 l/m 2 min 0 min 275 W/m 0,0 km/h (0 Bft) 97,87 %
20.11.2019 11:36 4,0 C 8,9 C 2,8 C 100 % 1018,8 hPa 0,0 l/m 2 min 0 min 284 W/m 0,0 km/h (0 Bft) 97,83 %
20.11.2019 11:38 4,0 C 9,4 C 2,8 C 100 % 1018,8 hPa 0,0 l/m 2 min 0 min 308 W/m 0,0 km/h (0 Bft) 100,00 %
20.11.2019 11:40 4,1 C 9,4 C 2,8 C 100 % 1018,8 hPa 0,0 l/m 2 min 0 min 318 W/m 3,2 km/h (1 Bft) 97,87 %
20.11.2019 11:42 4,1 C 9,4 C 2,8 C 100 % 1018,7 hPa 0,0 l/m 2 min 0 min 303 W/m 6,4 km/h (2 Bft) 97,87 %
20.11.2019 11:44 4,1 C 9,4 C 2,8 C 100 % 1018,7 hPa 0,0 l/m 2 min 0 min 300 W/m 3,2 km/h (1 Bft) 97,87 %
20.11.2019 11:46 4,2 C 9,4 C 2,8 C 100 % 1018,7 hPa 0,0 l/m 2 min 0 min 305 W/m 6,4 km/h (2 Bft) 97,83 %
20.11.2019 11:48 4,2 C 9,4 C 2,8 C 100 % 1018,7 hPa 0,0 l/m 2 min 0 min 318 W/m 3,2 km/h (1 Bft) 97,87 %
20.11.2019 11:50 4,2 C 8,9 C 2,8 C 100 % 1018,7 hPa 0,0 l/m 2 min 0 min 306 W/m 16,1 km/h (3 Bft) 93,62 %
20.11.2019 11:52 4,2 C 8,9 C 2,8 C 100 % 1018,6 hPa 0,0 l/m 2 min 0 min 308 W/m 6,4 km/h (2 Bft) 97,87 %
20.11.2019 11:54 4,2 C 9,4 C 2,8 C 100 % 1018,6 hPa 0,0 l/m 2 min 0 min 306 W/m 3,2 km/h (1 Bft) 95,74 %
20.11.2019 11:56 4,2 C 10,0 C 3,3 C 100 % 1018,6 hPa 0,0 l/m 2 min 0 min 319 W/m 3,2 km/h (1 Bft) 97,87 %
20.11.2019 11:58 4,3 C 10,6 C 3,3 C 100 % 1018,5 hPa 0,0 l/m 2 min 0 min 322 W/m 6,4 km/h (2 Bft) 97,87 %
20.11.2019 12:00 4,3 C 10,6 C 3,3 C 100 % 1018,6 hPa 0,0 l/m 2 min 0 min 314 W/m 6,4 km/h (2 Bft) 97,83 %
20.11.2019 12:02 4,4 C 10,0 C 3,3 C 100 % 1018,5 hPa 0,0 l/m 2 min 0 min 256 W/m 6,4 km/h (2 Bft) 100,00 %
20.11.2019 12:04 4,4 C 10,0 C 3,3 C 100 % 1018,5 hPa 0,0 l/m 2 min 0 min 198 W/m 0,0 km/h (0 Bft) 100,00 %
20.11.2019 12:06 4,6 C 10,6 C 3,3 C 100 % 1018,5 hPa 0,0 l/m 2 min 0 min 311 W/m 3,2 km/h (1 Bft) 97,87 %
20.11.2019 12:08 4,6 C 10,0 C 3,3 C 100 % 1018,5 hPa 0,0 l/m 2 min 0 min 322 W/m 12,9 km/h (3 Bft) 97,87 %
20.11.2019 12:10 4,6 C 10,0 C 3,9 C 100 % 1018,5 hPa 0,0 l/m 2 min 0 min 327 W/m 6,4 km/h (2 Bft) 100,00 %
20.11.2019 12:12 4,7 C 9,4 C 5,0 C 100 % 1018,4 hPa 0,0 l/m 2 min 0 min 323 W/m 16,1 km/h (3 Bft) 100,00 %
20.11.2019 12:14 4,7 C 9,4 C 5,0 C 100 % 1018,4 hPa 0,0 l/m 2 min 0 min 317 W/m 16,1 km/h (3 Bft) 100,00 %
20.11.2019 12:16 4,8 C 10,0 C 4,4 C 100 % 1018,4 hPa 0,0 l/m 2 min 0 min 339 W/m 12,9 km/h (3 Bft) 97,87 %
20.11.2019 12:18 4,8 C 10,6 C 3,9 C 100 % 1018,4 hPa 0,0 l/m 2 min 0 min 346 W/m 6,4 km/h (2 Bft) 97,87 %
20.11.2019 12:20 4,9 C 11,1 C 3,9 C 100 % 1018,3 hPa 0,0 l/m 2 min 0 min 358 W/m 0,0 km/h (0 Bft) 97,87 %
20.11.2019 12:22 4,9 C 11,7 C 3,9 C 100 % 1018,3 hPa 0,0 l/m 2 min 0 min 354 W/m 3,2 km/h (1 Bft) 97,83 %
20.11.2019 12:24 5,1 C 10,6 C 3,9 C 100 % 1018,2 hPa 0,0 l/m 2 min 0 min 326 W/m 3,2 km/h (1 Bft) 97,87 %
20.11.2019 12:26 5,1 C 10,6 C 3,9 C 100 % 1018,3 hPa 0,0 l/m 2 min 0 min 332 W/m 3,2 km/h (1 Bft) 97,87 %
20.11.2019 12:28 5,2 C 10,6 C 3,9 C 100 % 1018,2 hPa 0,0 l/m 2 min 0 min 358 W/m 6,4 km/h (2 Bft) 95,74 %
20.11.2019 12:30 5,2 C 11,7 C 3,9 C 100 % 1018,2 hPa 0,0 l/m 2 min 0 min 362 W/m 0,0 km/h (0 Bft) 97,87 %
20.11.2019 12:32 5,3 C 12,2 C 3,9 C 100 % 1018,2 hPa 0,0 l/m 2 min 0 min 367 W/m 0,0 km/h (0 Bft) 95,74 %
20.11.2019 12:34 5,4 C 12,8 C 4,4 C 100 % 1018,2 hPa 0,0 l/m 2 min 0 min 387 W/m 3,2 km/h (1 Bft) 97,83 %
20.11.2019 12:36 5,6 C 12,2 C 4,4 C 100 % 1018,2 hPa 0,0 l/m 2 min 0 min 423 W/m 0,0 km/h (0 Bft) 97,87 %
20.11.2019 12:38 5,6 C 13,3 C 5,0 C 100 % 1018,2 hPa 0,0 l/m 2 min 0 min 438 W/m 3,2 km/h (1 Bft) 97,87 %
20.11.2019 12:40 5,7 C 12,2 C 5,0 C 100 % 1018,2 hPa 0,0 l/m 2 min 0 min 376 W/m 3,2 km/h (1 Bft) 97,87 %
20.11.2019 12:42 5,8 C 10,6 C 5,0 C 100 % 1018,2 hPa 0,0 l/m 2 min 0 min 248 W/m 0,0 km/h (0 Bft) 97,87 %
20.11.2019 12:44 5,9 C 8,3 C 4,4 C 100 % 1018,2 hPa 0,0 l/m 0 min 0 min 113 W/m 3,2 km/h (1 Bft) 97,87 %
20.11.2019 12:46 5,9 C 7,8 C 4,4 C 100 % 1018,2 hPa 0,0 l/m 0 min 0 min 94 W/m 3,2 km/h (1 Bft) 97,83 %
20.11.2019 12:48 5,8 C 6,7 C 3,9 C 100 % 1018,2 hPa 0,0 l/m 0 min 0 min 105 W/m 0,0 km/h (0 Bft) 100,00 %
20.11.2019 12:50 5,8 C 6,7 C 3,9 C 100 % 1018,2 hPa 0,0 l/m 0 min 0 min 124 W/m 3,2 km/h (1 Bft) 100,00 %
20.11.2019 12:52 5,8 C 7,8 C 3,9 C 100 % 1018,2 hPa 0,0 l/m 2 min 0 min 218 W/m 0,0 km/h (0 Bft) 97,87 %
20.11.2019 12:54 5,8 C 8,9 C 4,4 C 100 % 1018,1 hPa 0,0 l/m 2 min 0 min 322 W/m 3,2 km/h (1 Bft) 100,00 %
20.11.2019 12:56 5,8 C 8,3 C 3,9 C 100 % 1018,0 hPa 0,0 l/m 2 min 0 min 202 W/m 3,2 km/h (1 Bft) 100,00 %
20.11.2019 12:58 5,8 C 8,9 C 3,9 C 99 % 1018,1 hPa 0,0 l/m 2 min 0 min 164 W/m 0,0 km/h (0 Bft) 100,00 %
20.11.2019 13:00 5,8 C 10,0 C 4,4 C 99 % 1018,1 hPa 0,0 l/m 2 min 0 min 341 W/m 0,0 km/h (0 Bft) 100,00 %
20.11.2019 13:02 5,8 C 10,6 C 4,4 C 99 % 1018,1 hPa 0,0 l/m 2 min 0 min 333 W/m 0,0 km/h (0 Bft) 100,00 %
20.11.2019 13:04 5,8 C 11,1 C 4,4 C 99 % 1018,0 hPa 0,0 l/m 2 min 0 min 325 W/m 0,0 km/h (0 Bft) 100,00 %
20.11.2019 13:06 5,9 C 11,7 C 4,4 C 99 % 1018,0 hPa 0,0 l/m 2 min 0 min 322 W/m 3,2 km/h (1 Bft) 97,87 %
20.11.2019 13:08 5,9 C 11,1 C 4,4 C 99 % 1018,0 hPa 0,0 l/m 2 min 0 min 313 W/m 0,0 km/h (0 Bft) 100,00 %
20.11.2019 13:10 6,0 C 11,1 C 4,4 C 99 % 1018,0 hPa 0,0 l/m 2 min 0 min 323 W/m 0,0 km/h (0 Bft) 100,00 %
20.11.2019 13:12 6,0 C 11,7 C 4,4 C 99 % 1017,9 hPa 0,0 l/m 2 min 0 min 338 W/m 0,0 km/h (0 Bft) 100,00 %
20.11.2019 13:14 6,1 C 12,2 C 4,4 C 99 % 1017,9 hPa 0,0 l/m 2 min 0 min 332 W/m 3,2 km/h (1 Bft) 100,00 %
20.11.2019 13:16 6,1 C 11,7 C 4,4 C 99 % 1017,9 hPa 0,0 l/m 2 min 0 min 294 W/m 3,2 km/h (1 Bft) 100,00 %
20.11.2019 13:18 6,2 C 12,2 C 4,4 C 98 % 1017,8 hPa 0,0 l/m 2 min 0 min 280 W/m 3,2 km/h (1 Bft) 100,00 %
20.11.2019 13:20 6,3 C 11,1 C 5,0 C 98 % 1017,8 hPa 0,0 l/m 2 min 0 min 353 W/m 9,7 km/h (2 Bft) 100,00 %
20.11.2019 13:22 6,3 C 11,7 C 5,0 C 98 % 1017,8 hPa 0,0 l/m 2 min 0 min 346 W/m 6,4 km/h (2 Bft) 97,87 %
20.11.2019 13:24 6,4 C 11,7 C 5,0 C 98 % 1017,8 hPa 0,0 l/m 2 min 0 min 342 W/m 0,0 km/h (0 Bft) 97,87 %
20.11.2019 13:26 6,4 C 11,1 C 5,0 C 98 % 1017,8 hPa 0,0 l/m 2 min 0 min 332 W/m 3,2 km/h (1 Bft) 97,87 %
20.11.2019 13:28 6,4 C 10,6 C 5,0 C 97 % 1017,8 hPa 0,0 l/m 2 min 0 min 218 W/m 3,2 km/h (1 Bft) 95,74 %
20.11.2019 13:30 6,5 C 10,6 C 5,0 C 97 % 1017,7 hPa 0,0 l/m 2 min 0 min 221 W/m 0,0 km/h (0 Bft) 97,87 %
20.11.2019 13:32 6,5 C 11,7 C 5,0 C 97 % 1017,7 hPa 0,0 l/m 2 min 0 min 327 W/m 3,2 km/h (1 Bft) 97,83 %
20.11.2019 13:34 6,5 C 11,7 C 5,0 C 97 % 1017,7 hPa 0,0 l/m 2 min 0 min 332 W/m 3,2 km/h (1 Bft) 95,74 %
20.11.2019 13:36 6,6 C 11,1 C 5,0 C 96 % 1017,6 hPa 0,0 l/m 2 min 0 min 317 W/m 6,4 km/h (2 Bft) 97,87 %
20.11.2019 13:38 6,6 C 10,0 C 5,0 C 96 % 1017,6 hPa 0,0 l/m 2 min 0 min 268 W/m 3,2 km/h (1 Bft) 97,87 %
20.11.2019 13:40 6,6 C 11,1 C 5,0 C 96 % 1017,6 hPa 0,0 l/m 2 min 0 min 313 W/m 3,2 km/h (1 Bft) 97,87 %
20.11.2019 13:42 6,6 C 11,1 C 5,0 C 95 % 1017,6 hPa 0,0 l/m 2 min 0 min 336 W/m 3,2 km/h (1 Bft) 95,65 %
20.11.2019 13:44 6,7 C 11,7 C 5,0 C 95 % 1017,5 hPa 0,0 l/m 2 min 0 min 343 W/m 0,0 km/h (0 Bft) 95,74 %
20.11.2019 13:46 6,7 C 11,7 C 5,0 C 95 % 1017,5 hPa 0,0 l/m 2 min 0 min 348 W/m 3,2 km/h (1 Bft) 97,87 %
20.11.2019 13:48 6,7 C 11,7 C 5,0 C 94 % 1017,5 hPa 0,0 l/m 2 min 0 min 339 W/m 3,2 km/h (1 Bft) 52,17 %
20.11.2019 13:50 6,8 C 11,1 C 5,0 C 94 % 1017,5 hPa 0,0 l/m 2 min 0 min 257 W/m 3,2 km/h (1 Bft) 97,87 %
20.11.2019 13:52 6,8 C 10,6 C 5,0 C 94 % 1017,4 hPa 0,0 l/m 2 min 0 min 282 W/m 3,2 km/h (1 Bft) 95,74 %
20.11.2019 13:54 6,8 C 10,0 C 5,0 C 93 % 1017,5 hPa 0,0 l/m 2 min 0 min 266 W/m 3,2 km/h (1 Bft) 97,83 %
20.11.2019 13:56 6,8 C 8,9 C 5,0 C 93 % 1017,4 hPa 0,0 l/m 2 min 0 min 145 W/m 0,0 km/h (0 Bft) 97,87 %
20.11.2019 13:58 6,8 C 7,8 C 4,4 C 93 % 1017,4 hPa 0,0 l/m 0 min 0 min 115 W/m 0,0 km/h (0 Bft) 97,87 %
20.11.2019 14:00 6,8 C 7,8 C 4,4 C 92 % 1017,3 hPa 0,0 l/m 2 min 0 min 146 W/m 3,2 km/h (1 Bft) 97,87 %
20.11.2019 14:02 6,8 C 7,8 C 4,4 C 92 % 1017,3 hPa 0,0 l/m 2 min 0 min 138 W/m 0,0 km/h (0 Bft) 97,87 %
20.11.2019 14:04 6,7 C 7,2 C 4,4 C 92 % 1017,3 hPa 0,0 l/m 0 min 0 min 101 W/m 0,0 km/h (0 Bft) 100,00 %
20.11.2019 14:06 6,7 C 8,3 C 4,4 C 91 % 1017,3 hPa 0,0 l/m 0 min 0 min 123 W/m 3,2 km/h (1 Bft) 95,65 %
20.11.2019 14:08 6,7 C 9,4 C 4,4 C 91 % 1017,3 hPa 0,0 l/m 2 min 0 min 271 W/m 0,0 km/h (0 Bft) 97,87 %
20.11.2019 14:10 6,7 C 9,4 C 4,4 C 91 % 1017,3 hPa 0,0 l/m 2 min 0 min 258 W/m 0,0 km/h (0 Bft) 97,87 %
20.11.2019 14:12 6,7 C 10,0 C 4,4 C 91 % 1017,3 hPa 0,0 l/m 2 min 0 min 259 W/m 3,2 km/h (1 Bft) 97,87 %
20.11.2019 14:14 6,7 C 10,0 C 4,4 C 91 % 1017,3 hPa 0,0 l/m 2 min 0 min 275 W/m 6,4 km/h (2 Bft) 93,62 %
20.11.2019 14:16 6,7 C 10,0 C 4,4 C 91 % 1017,3 hPa 0,0 l/m 2 min 0 min 267 W/m 3,2 km/h (1 Bft) 97,87 %
20.11.2019 14:18 6,7 C 9,4 C 4,4 C 91 % 1017,3 hPa 0,0 l/m 2 min 0 min 241 W/m 3,2 km/h (1 Bft) 95,65 %
20.11.2019 14:20 6,7 C 8,3 C 3,9 C 91 % 1017,3 hPa 0,0 l/m 2 min 0 min 181 W/m 3,2 km/h (1 Bft) 97,87 %
20.11.2019 14:22 6,6 C 7,8 C 3,9 C 91 % 1017,3 hPa 0,0 l/m 0 min 0 min 103 W/m 6,4 km/h (2 Bft) 97,87 %
20.11.2019 14:24 6,6 C 6,7 C 3,9 C 91 % 1017,3 hPa 0,0 l/m 0 min 0 min 58 W/m 3,2 km/h (1 Bft) 97,87 %
20.11.2019 14:26 6,5 C 6,1 C 3,9 C 91 % 1017,3 hPa 0,0 l/m 0 min 0 min 58 W/m 3,2 km/h (1 Bft) 97,87 %
20.11.2019 14:28 6,5 C 7,2 C 3,3 C 91 % 1017,3 hPa 0,0 l/m 2 min 0 min 184 W/m 0,0 km/h (0 Bft) 97,87 %
20.11.2019 14:30 6,4 C 7,8 C 3,3 C 91 % 1017,3 hPa 0,0 l/m 2 min 0 min 215 W/m 9,7 km/h (2 Bft) 97,83 %
20.11.2019 14:32 6,3 C 8,3 C 3,3 C 91 % 1017,3 hPa 0,0 l/m 2 min 0 min 201 W/m 3,2 km/h (1 Bft) 95,74 %
20.11.2019 14:34 6,3 C 8,3 C 3,3 C 90 % 1017,3 hPa 0,0 l/m 2 min 0 min 204 W/m 6,4 km/h (2 Bft) 97,87 %
20.11.2019 14:36 6,3 C 8,3 C 3,3 C 91 % 1017,3 hPa 0,0 l/m 2 min 0 min 193 W/m 3,2 km/h (1 Bft) 97,87 %
20.11.2019 14:38 6,2 C 8,3 C 3,3 C 91 % 1017,2 hPa 0,0 l/m 2 min 0 min 189 W/m 6,4 km/h (2 Bft) 97,87 %
20.11.2019 14:40 6,2 C 7,8 C 3,3 C 91 % 1017,3 hPa 0,0 l/m 2 min 0 min 185 W/m 3,2 km/h (1 Bft) 97,87 %
20.11.2019 14:42 6,1 C 7,2 C 3,3 C 91 % 1017,2 hPa 0,0 l/m 2 min 0 min 188 W/m 3,2 km/h (1 Bft) 95,65 %
20.11.2019 14:44 6,0 C 6,1 C 3,3 C 91 % 1017,2 hPa 0,0 l/m 2 min 0 min 187 W/m 3,2 km/h (1 Bft) 95,74 %
20.11.2019 14:46 5,9 C 6,1 C 3,3 C 91 % 1017,2 hPa 0,0 l/m 2 min 0 min 156 W/m 3,2 km/h (1 Bft) 100,00 %
20.11.2019 14:48 5,9 C 5,6 C 3,3 C 91 % 1017,1 hPa 0,0 l/m 2 min 0 min 155 W/m 3,2 km/h (1 Bft) 97,87 %
20.11.2019 14:50 5,8 C 5,6 C 3,3 C 91 % 1017,1 hPa 0,0 l/m 2 min 0 min 124 W/m 3,2 km/h (1 Bft) 95,74 %
20.11.2019 14:52 5,8 C 5,0 C 3,3 C 91 % 1017,1 hPa 0,0 l/m 2 min 0 min 107 W/m 0,0 km/h (0 Bft) 97,83 %
20.11.2019 14:54 5,7 C 5,0 C 3,3 C 91 % 1017,1 hPa 0,0 l/m 0 min 0 min 78 W/m 3,2 km/h (1 Bft) 100,00 %
20.11.2019 14:56 5,6 C 4,4 C 3,3 C 91 % 1017,0 hPa 0,0 l/m 0 min 0 min 72 W/m 3,2 km/h (1 Bft) 100,00 %
20.11.2019 14:58 5,6 C 4,4 C 3,3 C 91 % 1017,0 hPa 0,0 l/m 0 min 0 min 68 W/m 6,4 km/h (2 Bft) 97,87 %
20.11.2019 15:00 5,5 C 4,4 C 3,3 C 91 % 1017,0 hPa 0,0 l/m 0 min 0 min 63 W/m 6,4 km/h (2 Bft) 97,87 %
20.11.2019 15:02 5,4 C 4,4 C 3,3 C 91 % 1016,9 hPa 0,0 l/m 0 min 0 min 60 W/m 3,2 km/h (1 Bft) 97,87 %
20.11.2019 15:04 5,3 C 4,4 C 3,3 C 91 % 1016,9 hPa 0,0 l/m 0 min 0 min 59 W/m 0,0 km/h (0 Bft) 97,83 %
20.11.2019 15:06 5,3 C 3,9 C 2,8 C 91 % 1016,9 hPa 0,0 l/m 0 min 0 min 53 W/m 3,2 km/h (1 Bft) 97,87 %
20.11.2019 15:08 5,2 C 3,9 C 2,8 C 91 % 1016,9 hPa 0,0 l/m 0 min 0 min 55 W/m 3,2 km/h (1 Bft) 97,87 %
20.11.2019 15:10 5,2 C 3,9 C 2,8 C 91 % 1016,9 hPa 0,0 l/m 0 min 0 min 57 W/m 0,0 km/h (0 Bft) 97,87 %
20.11.2019 15:12 5,1 C 3,9 C 2,8 C 92 % 1016,8 hPa 0,0 l/m 0 min 0 min 57 W/m 0,0 km/h (0 Bft) 97,87 %
20.11.2019 15:14 5,0 C 3,9 C 2,8 C 91 % 1016,8 hPa 0,0 l/m 0 min 0 min 57 W/m 0,0 km/h (0 Bft) 97,87 %
20.11.2019 15:16 4,9 C 3,9 C 2,8 C 92 % 1016,8 hPa 0,0 l/m 0 min 0 min 52 W/m 0,0 km/h (0 Bft) 95,65 %
20.11.2019 15:18 4,9 C 3,9 C 2,8 C 92 % 1016,8 hPa 0,0 l/m 0 min 0 min 49 W/m 3,2 km/h (1 Bft) 97,87 %
20.11.2019 15:20 4,9 C 3,9 C 2,8 C 92 % 1016,8 hPa 0,0 l/m 0 min 0 min 44 W/m 3,2 km/h (1 Bft) 97,87 %
20.11.2019 15:22 4,8 C 3,9 C 2,8 C 92 % 1016,7 hPa 0,0 l/m 0 min 0 min 40 W/m 0,0 km/h (0 Bft) 97,87 %
20.11.2019 15:24 4,8 C 3,9 C 2,8 C 92 % 1016,7 hPa 0,0 l/m 0 min 0 min 39 W/m 0,0 km/h (0 Bft) 97,87 %
20.11.2019 15:26 4,7 C 3,3 C 2,8 C 92 % 1016,7 hPa 0,0 l/m 0 min 0 min 36 W/m 0,0 km/h (0 Bft) 97,87 %
20.11.2019 15:28 4,7 C 3,3 C 2,8 C 92 % 1016,7 hPa 0,0 l/m 0 min 0 min 35 W/m 0,0 km/h (0 Bft) 95,65 %
20.11.2019 15:30 4,7 C 3,3 C 2,8 C 92 % 1016,7 hPa 0,0 l/m 0 min 0 min 39 W/m 0,0 km/h (0 Bft) 95,74 %
20.11.2019 15:32 4,6 C 3,3 C 2,8 C 92 % 1016,7 hPa 0,0 l/m 0 min 0 min 42 W/m 0,0 km/h (0 Bft) 97,87 %
20.11.2019 15:34 4,6 C 3,3 C 2,8 C 92 % 1016,6 hPa 0,0 l/m 0 min 0 min 44 W/m 0,0 km/h (0 Bft) 97,87 %
20.11.2019 15:36 4,6 C 3,3 C 2,8 C 92 % 1016,6 hPa 0,0 l/m 0 min 0 min 41 W/m 0,0 km/h (0 Bft) 95,74 %
20.11.2019 15:38 4,5 C 3,3 C 2,2 C 92 % 1016,5 hPa 0,0 l/m 0 min 0 min 34 W/m 0,0 km/h (0 Bft) 100,00 %
20.11.2019 15:40 4,4 C 3,3 C 2,2 C 92 % 1016,5 hPa 0,0 l/m 0 min 0 min 33 W/m 0,0 km/h (0 Bft) 100,00 %
20.11.2019 15:42 4,4 C 3,3 C 2,2 C 93 % 1016,6 hPa 0,0 l/m 0 min 0 min 32 W/m 0,0 km/h (0 Bft) 100,00 %
20.11.2019 15:44 4,4 C 3,3 C 2,2 C 93 % 1016,5 hPa 0,0 l/m 0 min 0 min 32 W/m 0,0 km/h (0 Bft) 100,00 %
20.11.2019 15:46 4,3 C 3,3 C 2,2 C 93 % 1016,5 hPa 0,0 l/m 0 min 0 min 34 W/m 0,0 km/h (0 Bft) 100,00 %
20.11.2019 15:48 4,3 C 3,3 C 2,2 C 93 % 1016,5 hPa 0,0 l/m 0 min 0 min 39 W/m 3,2 km/h (1 Bft) 97,87 %
20.11.2019 15:50 4,3 C 3,3 C 2,2 C 93 % 1016,5 hPa 0,0 l/m 0 min 0 min 36 W/m 0,0 km/h (0 Bft) 100,00 %
20.11.2019 15:52 4,3 C 3,3 C 2,2 C 93 % 1016,5 hPa 0,0 l/m 0 min 0 min 30 W/m 0,0 km/h (0 Bft) 100,00 %
20.11.2019 15:54 4,2 C 3,3 C 2,2 C 93 % 1016,5 hPa 0,0 l/m 0 min 0 min 26 W/m 0,0 km/h (0 Bft) 100,00 %
20.11.2019 15:56 4,2 C 2,8 C 2,2 C 93 % 1016,4 hPa 0,0 l/m 0 min 0 min 25 W/m 0,0 km/h (0 Bft) 97,87 %
20.11.2019 15:58 4,2 C 2,8 C 2,2 C 93 % 1016,4 hPa 0,0 l/m 0 min 0 min 23 W/m 0,0 km/h (0 Bft) 100,00 %
20.11.2019 16:00 4,1 C 2,8 C 2,2 C 93 % 1016,4 hPa 0,0 l/m 0 min 0 min 25 W/m 0,0 km/h (0 Bft) 100,00 %
20.11.2019 16:02 4,1 C 2,8 C 2,2 C 93 % 1016,4 hPa 0,0 l/m 0 min 0 min 28 W/m 0,0 km/h (0 Bft) 100,00 %
20.11.2019 16:04 4,1 C 2,8 C 2,2 C 93 % 1016,4 hPa 0,0 l/m 0 min 0 min 27 W/m 0,0 km/h (0 Bft) 100,00 %
20.11.2019 16:06 4,1 C 2,8 C 2,2 C 93 % 1016,4 hPa 0,0 l/m 0 min 0 min 25 W/m 0,0 km/h (0 Bft) 100,00 %
20.11.2019 16:08 4,0 C 2,8 C 2,2 C 93 % 1016,4 hPa 0,0 l/m 0 min 0 min 25 W/m 0,0 km/h (0 Bft) 97,87 %
20.11.2019 16:10 4,0 C 2,8 C 2,2 C 93 % 1016,4 hPa 0,0 l/m 0 min 0 min 25 W/m 0,0 km/h (0 Bft) 95,74 %
20.11.2019 16:12 3,9 C 2,8 C 2,2 C 93 % 1016,4 hPa 0,0 l/m 0 min 0 min 23 W/m 0,0 km/h (0 Bft) 97,87 %
20.11.2019 16:14 3,9 C 2,8 C 2,2 C 94 % 1016,3 hPa 0,0 l/m 0 min 0 min 20 W/m 0,0 km/h (0 Bft) 97,83 %
20.11.2019 16:16 3,9 C 2,8 C 2,2 C 94 % 1016,3 hPa 0,0 l/m 0 min 0 min 18 W/m 3,2 km/h (1 Bft) 95,74 %
20.11.2019 16:18 3,9 C 2,8 C 2,2 C 94 % 1016,3 hPa 0,0 l/m 0 min 0 min 15 W/m 0,0 km/h (0 Bft) 97,87 %
20.11.2019 16:20 3,9 C 2,8 C 2,2 C 94 % 1016,3 hPa 0,0 l/m 0 min 0 min 12 W/m 0,0 km/h (0 Bft) 97,87 %
20.11.2019 16:22 3,9 C 2,8 C 2,2 C 94 % 1016,3 hPa 0,0 l/m 0 min 0 min 11 W/m 0,0 km/h (0 Bft) 95,74 %
20.11.2019 16:24 3,8 C 2,8 C 2,2 C 94 % 1016,4 hPa 0,0 l/m 0 min 0 min 9 W/m 0,0 km/h (0 Bft) 91,49 %
20.11.2019 16:26 3,8 C 2,8 C 2,2 C 94 % 1016,3 hPa 0,0 l/m 0 min 0 min 9 W/m 0,0 km/h (0 Bft) 97,83 %
20.11.2019 16:28 3,8 C 2,8 C 2,2 C 94 % 1016,3 hPa 0,0 l/m 0 min 0 min 9 W/m 0,0 km/h (0 Bft) 95,74 %
20.11.2019 16:30 3,8 C 2,8 C 2,2 C 94 % 1016,3 hPa 0,0 l/m 0 min 0 min 7 W/m 0,0 km/h (0 Bft) 97,87 %
20.11.2019 16:32 3,8 C 2,8 C 2,2 C 94 % 1016,3 hPa 0,0 l/m 0 min 0 min 7 W/m 0,0 km/h (0 Bft) 97,87 %
20.11.2019 16:34 3,8 C 2,8 C 2,2 C 94 % 1016,3 hPa 0,0 l/m 0 min 0 min 7 W/m 0,0 km/h (0 Bft) 97,87 %
20.11.2019 16:36 3,8 C 2,8 C 2,2 C 94 % 1016,3 hPa 0,0 l/m 0 min 0 min 5 W/m 0,0 km/h (0 Bft) 97,87 %
20.11.2019 16:38 3,8 C 2,8 C 2,2 C 94 % 1016,3 hPa 0,0 l/m 0 min 0 min 5 W/m 3,2 km/h (1 Bft) 97,83 %
20.11.2019 16:40 3,7 C 2,2 C 1,7 C 94 % 1016,3 hPa 0,0 l/m 0 min 0 min 4 W/m 0,0 km/h (0 Bft) 95,74 %
20.11.2019 16:42 3,7 C 2,2 C 1,7 C 94 % 1016,3 hPa 0,0 l/m 0 min 0 min 0 W/m 0,0 km/h (0 Bft) 97,87 %
20.11.2019 16:44 3,7 C 2,2 C 1,7 C 94 % 1016,2 hPa 0,0 l/m 0 min 0 min 0 W/m 3,2 km/h (1 Bft) 95,74 %
20.11.2019 16:46 3,7 C 2,2 C 1,7 C 94 % 1016,3 hPa 0,0 l/m 0 min 0 min 0 W/m 3,2 km/h (1 Bft) 97,87 %
20.11.2019 16:48 3,7 C 2,2 C 1,7 C 94 % 1016,2 hPa 0,0 l/m 0 min 0 min 0 W/m 0,0 km/h (0 Bft) 97,83 %
20.11.2019 16:50 3,7 C 2,2 C 1,7 C 94 % 1016,2 hPa 0,0 l/m 0 min 0 min 0 W/m 0,0 km/h (0 Bft) 95,74 %
20.11.2019 16:52 3,6 C 2,2 C 1,1 C 94 % 1016,2 hPa 0,0 l/m 0 min 0 min 0 W/m 0,0 km/h (0 Bft) 97,87 %
20.11.2019 16:54 3,6 C 1,7 C 1,1 C 94 % 1016,2 hPa 0,0 l/m 0 min 0 min 0 W/m 0,0 km/h (0 Bft) 97,87 %
20.11.2019 16:56 3,6 C 1,7 C 1,1 C 94 % 1016,2 hPa 0,0 l/m 0 min 0 min 0 W/m 0,0 km/h (0 Bft) 97,87 %
20.11.2019 16:58 3,6 C 1,7 C 1,1 C 94 % 1016,2 hPa 0,0 l/m 0 min 0 min 0 W/m 0,0 km/h (0 Bft) 95,74 %
20.11.2019 17:00 3,5 C 1,7 C 1,1 C 94 % 1016,1 hPa 0,0 l/m 0 min 0 min 0 W/m 0,0 km/h (0 Bft) 97,83 %
20.11.2019 17:02 3,5 C 1,7 C 1,1 C 95 % 1016,2 hPa 0,0 l/m 0 min 0 min 0 W/m 0,0 km/h (0 Bft) 95,74 %
20.11.2019 17:04 3,4 C 1,1 C 1,1 C 95 % 1016,1 hPa 0,0 l/m 0 min 0 min 0 W/m 0,0 km/h (0 Bft) 97,87 %
20.11.2019 17:06 3,4 C 1,1 C 0,6 C 95 % 1016,1 hPa 0,0 l/m 0 min 0 min 0 W/m 0,0 km/h (0 Bft) 97,87 %
20.11.2019 17:08 3,4 C 1,1 C 0,6 C 95 % 1016,1 hPa 0,0 l/m 0 min 0 min 0 W/m 0,0 km/h (0 Bft) 97,87 %
20.11.2019 17:10 3,3 C 1,1 C 0,6 C 95 % 1016,1 hPa 0,0 l/m 0 min 0 min 0 W/m 0,0 km/h (0 Bft) 95,74 %
20.11.2019 17:12 3,3 C 1,1 C 0,6 C 94 % 1016,1 hPa 0,0 l/m 0 min 0 min 0 W/m 0,0 km/h (0 Bft) 93,48 %
20.11.2019 17:14 3,3 C 1,1 C 0,6 C 94 % 1016,0 hPa 0,0 l/m 0 min 0 min 0 W/m 0,0 km/h (0 Bft) 93,62 %
20.11.2019 17:16 3,2 C 1,1 C 0,6 C 94 % 1016,1 hPa 0,0 l/m 0 min 0 min 0 W/m 0,0 km/h (0 Bft) 95,74 %
20.11.2019 17:18 3,2 C 1,1 C 0,6 C 94 % 1016,0 hPa 0,0 l/m 0 min 0 min 0 W/m 0,0 km/h (0 Bft) 93,62 %
20.11.2019 17:20 3,1 C 1,1 C 0,6 C 94 % 1016,0 hPa 0,0 l/m 0 min 0 min 0 W/m 0,0 km/h (0 Bft) 95,74 %
20.11.2019 17:22 3,1 C 1,1 C 0,6 C 94 % 1016,0 hPa 0,0 l/m 0 min 0 min 0 W/m 0,0 km/h (0 Bft) 91,49 %
20.11.2019 17:24 3,1 C 1,1 C 0,6 C 95 % 1016,0 hPa 0,0 l/m 0 min 0 min 0 W/m 0,0 km/h (0 Bft) 95,65 %
20.11.2019 17:26 3,0 C 1,1 C 0,6 C 95 % 1016,0 hPa 0,0 l/m 0 min 0 min 0 W/m 3,2 km/h (1 Bft) 97,87 %
20.11.2019 17:29 2,9 C 1,1 C 0,6 C 94 % 1016,1 hPa 0,0 l/m 0 min 0 min 0 W/m 0,0 km/h (0 Bft) 92,86 %
20.11.2019 17:30 2,9 C 1,1 C 0,6 C 94 % 1016,1 hPa 0,0 l/m 0 min 0 min 0 W/m 0,0 km/h (0 Bft) 100,00 %
20.11.2019 17:32 2,8 C 1,1 C 0,6 C 94 % 1016,0 hPa 0,0 l/m 0 min 0 min 0 W/m 0,0 km/h (0 Bft) 93,62 %
20.11.2019 17:34 2,8 C 1,1 C 0,6 C 94 % 1016,0 hPa 0,0 l/m 0 min 0 min 0 W/m 0,0 km/h (0 Bft) 93,62 %
20.11.2019 17:36 2,7 C 1,1 C 0,6 C 94 % 1016,0 hPa 0,0 l/m 0 min 0 min 0 W/m 0,0 km/h (0 Bft) 95,65 %
20.11.2019 17:38 2,7 C 1,1 C 0,6 C 95 % 1015,9 hPa 0,0 l/m 0 min 0 min 0 W/m 0,0 km/h (0 Bft) 78,72 %
20.11.2019 17:40 2,6 C 0,6 C 0,6 C 95 % 1015,9 hPa 0,0 l/m 0 min 0 min 0 W/m 0,0 km/h (0 Bft) 72,34 %
20.11.2019 17:42 2,6 C 0,6 C 0,6 C 94 % 1015,9 hPa 0,0 l/m 0 min 0 min 0 W/m 3,2 km/h (1 Bft) 97,87 %
20.11.2019 17:44 2,6 C 0,6 C 0,6 C 94 % 1015,8 hPa 0,0 l/m 0 min 0 min 0 W/m 0,0 km/h (0 Bft) 97,87 %
20.11.2019 17:46 2,5 C 0,6 C 0,6 C 94 % 1015,8 hPa 0,0 l/m 0 min 0 min 0 W/m 0,0 km/h (0 Bft) 97,87 %
20.11.2019 17:48 2,5 C 0,6 C 0,0 C 94 % 1015,8 hPa 0,0 l/m 0 min 0 min 0 W/m 0,0 km/h (0 Bft) 97,83 %
20.11.2019 17:50 2,4 C 0,6 C 0,0 C 95 % 1015,8 hPa 0,0 l/m 0 min 0 min 0 W/m 0,0 km/h (0 Bft) 97,87 %
20.11.2019 17:52 2,4 C 1,1 C 0,6 C 95 % 1015,8 hPa 0,0 l/m 0 min 0 min 0 W/m 3,2 km/h (1 Bft) 97,87 %
20.11.2019 17:54 2,4 C 0,6 C 0,0 C 95 % 1015,9 hPa 0,0 l/m 0 min 0 min 0 W/m 0,0 km/h (0 Bft) 95,74 %
20.11.2019 17:56 2,3 C 0,6 C 0,0 C 95 % 1015,8 hPa 0,0 l/m 0 min 0 min 0 W/m 0,0 km/h (0 Bft) 97,87 %
20.11.2019 17:58 2,3 C 0,6 C 0,0 C 95 % 1015,8 hPa 0,0 l/m 0 min 0 min 0 W/m 0,0 km/h (0 Bft) 97,83 %
20.11.2019 18:00 2,3 C 0,6 C 0,0 C 95 % 1015,9 hPa 0,0 l/m 0 min 0 min 0 W/m 0,0 km/h (0 Bft) 97,87 %
20.11.2019 18:02 2,2 C 0,0 C 0,0 C 95 % 1015,8 hPa 0,0 l/m 0 min 0 min 0 W/m 0,0 km/h (0 Bft) 97,87 %
20.11.2019 18:04 2,2 C 0,0 C 0,0 C 95 % 1015,8 hPa 0,0 l/m 0 min 0 min 0 W/m 0,0 km/h (0 Bft) 97,87 %
20.11.2019 18:08 2,2 C 0,0 C 0,0 C 95 % 1015,7 hPa 0,0 l/m 0 min 0 min 0 W/m 0,0 km/h (0 Bft) 96,81 %
20.11.2019 18:10 2,1 C 0,6 C 0,0 C 95 % 1015,7 hPa 0,0 l/m 0 min 0 min 0 W/m 0,0 km/h (0 Bft) 97,83 %
20.11.2019 18:12 2,1 C 0,6 C 0,0 C 95 % 1015,8 hPa 0,0 l/m 0 min 0 min 0 W/m 0,0 km/h (0 Bft) 97,87 %
20.11.2019 18:14 2,1 C 0,6 C 0,0 C 95 % 1015,7 hPa 0,0 l/m 0 min 0 min 0 W/m 0,0 km/h (0 Bft) 97,87 %
20.11.2019 18:16 2,0 C 0,0 C -0,6 C 95 % 1015,8 hPa 0,0 l/m 0 min 0 min 0 W/m 0,0 km/h (0 Bft) 97,87 %
20.11.2019 18:18 1,9 C 0,0 C -0,6 C 95 % 1015,7 hPa 0,0 l/m 0 min 0 min 0 W/m 0,0 km/h (0 Bft) 97,87 %
20.11.2019 18:20 1,9 C 0,0 C -0,6 C 95 % 1015,7 hPa 0,0 l/m 0 min 0 min 0 W/m 0,0 km/h (0 Bft) 97,87 %
20.11.2019 18:22 1,9 C 0,0 C -0,6 C 95 % 1015,8 hPa 0,0 l/m 0 min 0 min 0 W/m 0,0 km/h (0 Bft) 97,83 %
20.11.2019 18:24 1,8 C 0,0 C -0,6 C 95 % 1015,7 hPa 0,0 l/m 0 min 0 min 0 W/m 0,0 km/h (0 Bft) 97,87 %
20.11.2019 18:26 1,8 C 0,0 C -0,6 C 95 % 1015,7 hPa 0,0 l/m 0 min 0 min 0 W/m 0,0 km/h (0 Bft) 100,00 %
20.11.2019 18:28 1,8 C 0,0 C -0,6 C 95 % 1015,7 hPa 0,0 l/m 0 min 0 min 0 W/m 0,0 km/h (0 Bft) 53,49 %
20.11.2019 18:30 1,8 C -0,6 C -0,6 C 95 % 1015,7 hPa 0,0 l/m 0 min 0 min 0 W/m 0,0 km/h (0 Bft) 100,00 %
20.11.2019 18:32 1,7 C -0,6 C -0,6 C 95 % 1015,8 hPa 0,0 l/m 0 min 0 min 0 W/m 0,0 km/h (0 Bft) 97,87 %
20.11.2019 18:34 1,7 C -0,6 C -0,6 C 95 % 1015,7 hPa 0,0 l/m 0 min 0 min 0 W/m 0,0 km/h (0 Bft) 100,00 %
20.11.2019 18:36 1,7 C -0,6 C -0,6 C 95 % 1015,8 hPa 0,0 l/m 0 min 0 min 0 W/m 0,0 km/h (0 Bft) 100,00 %
20.11.2019 18:38 1,6 C 0,0 C -1,1 C 95 % 1015,8 hPa 0,0 l/m 0 min 0 min 0 W/m 0,0 km/h (0 Bft) 100,00 %
20.11.2019 18:40 1,6 C -0,6 C -1,1 C 95 % 1015,8 hPa 0,0 l/m 0 min 0 min 0 W/m 0,0 km/h (0 Bft) 100,00 %
20.11.2019 18:42 1,6 C -0,6 C -1,1 C 95 % 1015,7 hPa 0,0 l/m 0 min 0 min 0 W/m 0,0 km/h (0 Bft) 97,87 %
20.11.2019 18:44 1,5 C -0,6 C -1,1 C 95 % 1015,7 hPa 0,0 l/m 0 min 0 min 0 W/m 0,0 km/h (0 Bft) 97,83 %
20.11.2019 18:46 1,5 C -0,6 C -1,1 C 95 % 1015,7 hPa 0,0 l/m 0 min 0 min 0 W/m 0,0 km/h (0 Bft) 100,00 %
20.11.2019 18:48 1,4 C -0,6 C -1,1 C 95 % 1015,7 hPa 0,0 l/m 0 min 0 min 0 W/m 0,0 km/h (0 Bft) 100,00 %
20.11.2019 18:50 1,4 C 0,0 C -1,1 C 95 % 1015,7 hPa 0,0 l/m 0 min 0 min 0 W/m 0,0 km/h (0 Bft) 100,00 %
20.11.2019 18:52 1,4 C 0,0 C -1,1 C 95 % 1015,7 hPa 0,0 l/m 0 min 0 min 0 W/m 0,0 km/h (0 Bft) 93,62 %
20.11.2019 18:54 1,3 C 0,0 C -0,6 C 95 % 1015,7 hPa 0,0 l/m 0 min 0 min 0 W/m 0,0 km/h (0 Bft) 100,00 %
20.11.2019 18:56 1,3 C 0,0 C -0,6 C 95 % 1015,7 hPa 0,0 l/m 0 min 0 min 0 W/m 0,0 km/h (0 Bft) 97,83 %
20.11.2019 18:58 1,3 C 0,0 C -0,6 C 95 % 1015,7 hPa 0,0 l/m 0 min 0 min 0 W/m 3,2 km/h (1 Bft) 97,87 %
20.11.2019 19:00 1,3 C 0,0 C -0,6 C 95 % 1015,7 hPa 0,0 l/m 0 min 0 min 0 W/m 0,0 km/h (0 Bft) 97,87 %
20.11.2019 19:02 1,2 C 0,0 C -0,6 C 95 % 1015,8 hPa 0,0 l/m 0 min 0 min 0 W/m 0,0 km/h (0 Bft) 97,87 %
20.11.2019 19:04 1,2 C 0,0 C -0,6 C 95 % 1015,7 hPa 0,0 l/m 0 min 0 min 0 W/m 0,0 km/h (0 Bft) 100,00 %
20.11.2019 19:06 1,2 C 0,0 C -0,6 C 95 % 1015,7 hPa 0,0 l/m 0 min 0 min 0 W/m 3,2 km/h (1 Bft) 95,74 %
20.11.2019 19:08 1,2 C 0,0 C -0,6 C 95 % 1015,7 hPa 0,0 l/m 0 min 0 min 0 W/m 0,0 km/h (0 Bft) 95,65 %
20.11.2019 19:10 1,2 C 0,0 C -0,6 C 95 % 1015,7 hPa 0,0 l/m 0 min 0 min 0 W/m 0,0 km/h (0 Bft) 97,87 %
20.11.2019 19:12 1,2 C 0,0 C -0,6 C 95 % 1015,7 hPa 0,0 l/m 0 min 0 min 0 W/m 3,2 km/h (1 Bft) 97,87 %
20.11.2019 19:14 1,2 C 0,0 C -0,6 C 95 % 1015,7 hPa 0,0 l/m 0 min 0 min 0 W/m 0,0 km/h (0 Bft) 54,35 %
20.11.2019 19:16 1,2 C 0,0 C -0,6 C 95 % 1015,7 hPa 0,0 l/m 0 min 0 min 0 W/m 0,0 km/h (0 Bft) 93,62 %
20.11.2019 19:18 1,2 C 0,0 C -0,6 C 95 % 1015,7 hPa 0,0 l/m 0 min 0 min 0 W/m 3,2 km/h (1 Bft) 95,74 %
20.11.2019 19:20 1,2 C 0,0 C 0,0 C 95 % 1015,7 hPa 0,0 l/m 0 min 0 min 0 W/m 0,0 km/h (0 Bft) 95,65 %
20.11.2019 19:22 1,2 C 0,0 C 0,0 C 95 % 1015,7 hPa 0,0 l/m 0 min 0 min 0 W/m 0,0 km/h (0 Bft) 93,62 %
20.11.2019 19:24 1,2 C 0,0 C 0,0 C 95 % 1015,8 hPa 0,0 l/m 0 min 0 min 0 W/m 0,0 km/h (0 Bft) 95,74 %
20.11.2019 19:26 1,2 C 0,0 C 0,0 C 95 % 1015,8 hPa 0,0 l/m 0 min 0 min 0 W/m 0,0 km/h (0 Bft) 95,74 %
20.11.2019 19:28 1,2 C 0,0 C 0,0 C 95 % 1015,7 hPa 0,0 l/m 0 min 0 min 0 W/m 0,0 km/h (0 Bft) 97,87 %
20.11.2019 19:30 1,2 C 0,6 C 0,0 C 96 % 1015,8 hPa 0,0 l/m 0 min 0 min 0 W/m 3,2 km/h (1 Bft) 93,62 %
20.11.2019 19:32 1,2 C 0,6 C 0,0 C 96 % 1015,7 hPa 0,0 l/m 0 min 0 min 0 W/m 3,2 km/h (1 Bft) 95,65 %
20.11.2019 19:34 1,2 C 0,6 C 0,0 C 96 % 1015,7 hPa 0,0 l/m 0 min 0 min 0 W/m 0,0 km/h (0 Bft) 95,74 %
20.11.2019 19:36 1,2 C 0,6 C 0,0 C 96 % 1015,7 hPa 0,0 l/m 0 min 0 min 0 W/m 0,0 km/h (0 Bft) 95,74 %
20.11.2019 19:38 1,2 C 0,6 C 0,0 C 96 % 1015,7 hPa 0,0 l/m 0 min 0 min 0 W/m 0,0 km/h (0 Bft) 95,56 %
20.11.2019 19:40 1,2 C 0,6 C 0,0 C 96 % 1015,7 hPa 0,0 l/m 0 min 0 min 0 W/m 3,2 km/h (1 Bft) 93,62 %
20.11.2019 19:42 1,2 C 0,6 C 0,0 C 96 % 1015,7 hPa 0,0 l/m 0 min 0 min 0 W/m 3,2 km/h (1 Bft) 95,74 %
20.11.2019 19:44 1,2 C 0,6 C 0,6 C 96 % 1015,7 hPa 0,0 l/m 0 min 0 min 0 W/m 0,0 km/h (0 Bft) 95,74 %
20.11.2019 19:46 1,2 C 0,6 C 0,6 C 96 % 1015,6 hPa 0,0 l/m 0 min 0 min 0 W/m 3,2 km/h (1 Bft) 95,65 %
20.11.2019 19:48 1,2 C 0,6 C 0,6 C 96 % 1015,6 hPa 0,0 l/m 0 min 0 min 0 W/m 3,2 km/h (1 Bft) 97,87 %
20.11.2019 19:50 1,3 C 0,6 C 0,6 C 96 % 1015,6 hPa 0,0 l/m 0 min 0 min 0 W/m 3,2 km/h (1 Bft) 97,87 %
20.11.2019 19:52 1,3 C 0,6 C 0,6 C 96 % 1015,6 hPa 0,0 l/m 0 min 0 min 0 W/m 0,0 km/h (0 Bft) 97,87 %
20.11.2019 19:53 1,3 C 0,6 C 0,6 C 96 % 1015,7 hPa 0,0 l/m 0 min 0 min 0 W/m 3,2 km/h (1 Bft) 97,87 %
20.11.2019 19:56 1,3 C 1,1 C 0,6 C 96 % 1015,7 hPa 0,0 l/m 0 min 0 min 0 W/m 0,0 km/h (0 Bft) 95,65 %
20.11.2019 19:58 1,3 C 1,1 C 0,6 C 96 % 1015,7 hPa 0,0 l/m 0 min 0 min 0 W/m 3,2 km/h (1 Bft) 95,74 %
20.11.2019 20:00 1,4 C 1,1 C 0,6 C 96 % 1015,6 hPa 0,0 l/m 0 min 0 min 0 W/m 0,0 km/h (0 Bft) 100,00 %
20.11.2019 20:02 1,4 C 1,1 C 0,6 C 96 % 1015,6 hPa 0,0 l/m 0 min 0 min 0 W/m 3,2 km/h (1 Bft) 97,87 %
20.11.2019 20:04 1,4 C 1,1 C 0,6 C 97 % 1015,7 hPa 0,0 l/m 0 min 0 min 0 W/m 6,4 km/h (2 Bft) 97,87 %
20.11.2019 20:06 1,5 C 1,1 C 0,6 C 96 % 1015,7 hPa 0,0 l/m 0 min 0 min 0 W/m 3,2 km/h (1 Bft) 97,87 %
20.11.2019 20:08 1,5 C 1,1 C 0,6 C 96 % 1015,6 hPa 0,0 l/m 0 min 0 min 0 W/m 0,0 km/h (0 Bft) 95,83 %
20.11.2019 20:10 1,6 C 1,1 C 0,6 C 97 % 1015,6 hPa 0,0 l/m 0 min 0 min 0 W/m 3,2 km/h (1 Bft) 100,00 %
20.11.2019 20:12 1,6 C 1,1 C 0,6 C 97 % 1015,6 hPa 0,0 l/m 0 min 0 min 0 W/m 0,0 km/h (0 Bft) 100,00 %
20.11.2019 20:14 1,6 C 1,1 C 0,6 C 97 % 1015,6 hPa 0,0 l/m 0 min 0 min 0 W/m 0,0 km/h (0 Bft) 97,87 %
20.11.2019 20:16 1,6 C 1,1 C 0,6 C 97 % 1015,6 hPa 0,0 l/m 0 min 0 min 0 W/m 0,0 km/h (0 Bft) 100,00 %
20.11.2019 20:18 1,6 C 1,1 C 0,6 C 97 % 1015,5 hPa 0,0 l/m 0 min 0 min 0 W/m 3,2 km/h (1 Bft) 100,00 %
20.11.2019 20:20 1,7 C 1,1 C 0,6 C 97 % 1015,5 hPa 0,0 l/m 0 min 0 min 0 W/m 3,2 km/h (1 Bft) 100,00 %
20.11.2019 20:22 1,7 C 1,1 C 0,6 C 97 % 1015,5 hPa 0,0 l/m 0 min 0 min 0 W/m 0,0 km/h (0 Bft) 97,87 %
20.11.2019 20:24 1,7 C 1,1 C 0,6 C 97 % 1015,5 hPa 0,0 l/m 0 min 0 min 0 W/m 3,2 km/h (1 Bft) 100,00 %
20.11.2019 20:26 1,7 C 1,1 C 0,6 C 97 % 1015,4 hPa 0,0 l/m 0 min 0 min 0 W/m 3,2 km/h (1 Bft) 100,00 %
20.11.2019 20:28 1,7 C 1,1 C 0,6 C 97 % 1015,5 hPa 0,0 l/m 0 min 0 min 0 W/m 0,0 km/h (0 Bft) 100,00 %
20.11.2019 20:30 1,7 C 1,1 C 0,6 C 97 % 1015,4 hPa 0,0 l/m 0 min 0 min 0 W/m 0,0 km/h (0 Bft) 100,00 %
20.11.2019 20:32 1,7 C 1,1 C 1,1 C 97 % 1015,4 hPa 0,0 l/m 0 min 0 min 0 W/m 0,0 km/h (0 Bft) 100,00 %
20.11.2019 20:34 1,8 C 1,1 C 1,1 C 97 % 1015,5 hPa 0,0 l/m 0 min 0 min 0 W/m 0,0 km/h (0 Bft) 100,00 %
20.11.2019 20:36 1,8 C 1,1 C 1,1 C 97 % 1015,4 hPa 0,0 l/m 0 min 0 min 0 W/m 0,0 km/h (0 Bft) 100,00 %
20.11.2019 20:38 1,8 C 1,1 C 1,1 C 97 % 1015,5 hPa 0,0 l/m 0 min 0 min 0 W/m 0,0 km/h (0 Bft) 100,00 %
20.11.2019 20:40 1,8 C 1,1 C 1,1 C 97 % 1015,4 hPa 0,0 l/m 0 min 0 min 0 W/m 0,0 km/h (0 Bft) 100,00 %
20.11.2019 20:42 1,8 C 1,1 C 1,1 C 97 % 1015,4 hPa 0,0 l/m 0 min 0 min 0 W/m 0,0 km/h (0 Bft) 100,00 %
20.11.2019 20:44 1,8 C 1,1 C 1,1 C 97 % 1015,4 hPa 0,0 l/m 0 min 0 min 0 W/m 0,0 km/h (0 Bft) 100,00 %
20.11.2019 20:46 1,9 C 1,1 C 1,1 C 97 % 1015,3 hPa 0,0 l/m 0 min 0 min 0 W/m 0,0 km/h (0 Bft) 100,00 %
20.11.2019 20:48 1,9 C 1,1 C 0,6 C 97 % 1015,4 hPa 0,0 l/m 0 min 0 min 0 W/m 0,0 km/h (0 Bft) 97,87 %
20.11.2019 20:50 1,9 C 1,1 C 1,1 C 97 % 1015,3 hPa 0,0 l/m 0 min 0 min 0 W/m 0,0 km/h (0 Bft) 100,00 %
20.11.2019 20:52 1,9 C 1,1 C 0,6 C 97 % 1015,3 hPa 0,0 l/m 0 min 0 min 0 W/m 0,0 km/h (0 Bft) 97,87 %
20.11.2019 20:54 1,9 C 1,1 C 0,6 C 97 % 1015,3 hPa 0,0 l/m 0 min 0 min 0 W/m 0,0 km/h (0 Bft) 97,83 %
20.11.2019 20:56 1,9 C 1,1 C 0,6 C 97 % 1015,3 hPa 0,0 l/m 0 min 0 min 0 W/m 3,2 km/h (1 Bft) 97,87 %
20.11.2019 20:58 1,9 C 1,1 C 0,6 C 97 % 1015,4 hPa 0,0 l/m 0 min 0 min 0 W/m 3,2 km/h (1 Bft) 97,87 %
20.11.2019 21:00 1,9 C 1,1 C 0,6 C 97 % 1015,3 hPa 0,0 l/m 0 min 0 min 0 W/m 6,4 km/h (2 Bft) 97,87 %
20.11.2019 21:02 1,9 C 1,1 C 0,6 C 97 % 1015,2 hPa 0,0 l/m 0 min 0 min 0 W/m 3,2 km/h (1 Bft) 97,87 %
20.11.2019 21:04 1,9 C 1,1 C 0,6 C 97 % 1015,2 hPa 0,0 l/m 0 min 0 min 0 W/m 0,0 km/h (0 Bft) 95,74 %
20.11.2019 21:06 1,9 C 1,1 C 0,6 C 97 % 1015,2 hPa 0,0 l/m 0 min 0 min 0 W/m 0,0 km/h (0 Bft) 97,83 %
20.11.2019 21:08 1,9 C 1,1 C 0,6 C 97 % 1015,2 hPa 0,0 l/m 0 min 0 min 0 W/m 0,0 km/h (0 Bft) 97,87 %
20.11.2019 21:10 1,9 C 1,1 C 0,6 C 97 % 1015,2 hPa 0,0 l/m 0 min 0 min 0 W/m 3,2 km/h (1 Bft) 97,87 %
20.11.2019 21:12 1,9 C 1,1 C 0,6 C 97 % 1015,1 hPa 0,0 l/m 0 min 0 min 0 W/m 3,2 km/h (1 Bft) 97,87 %
20.11.2019 21:14 1,9 C 0,6 C 0,6 C 97 % 1015,2 hPa 0,0 l/m 0 min 0 min 0 W/m 0,0 km/h (0 Bft) 97,87 %
20.11.2019 21:16 1,9 C 0,6 C 0,6 C 97 % 1015,2 hPa 0,0 l/m 0 min 0 min 0 W/m 0,0 km/h (0 Bft) 97,83 %
20.11.2019 21:18 1,9 C 0,6 C 0,6 C 97 % 1015,1 hPa 0,0 l/m 0 min 0 min 0 W/m 0,0 km/h (0 Bft) 97,87 %
20.11.2019 21:20 1,9 C 0,6 C 0,6 C 97 % 1015,1 hPa 0,0 l/m 0 min 0 min 0 W/m 0,0 km/h (0 Bft) 97,87 %
20.11.2019 21:22 1,9 C 0,6 C 0,6 C 97 % 1015,1 hPa 0,0 l/m 0 min 0 min 0 W/m 0,0 km/h (0 Bft) 97,87 %
20.11.2019 21:24 1,9 C 0,6 C 0,0 C 97 % 1015,1 hPa 0,0 l/m 0 min 0 min 0 W/m 0,0 km/h (0 Bft) 95,74 %
20.11.2019 21:26 1,8 C 0,6 C 0,0 C 97 % 1015,1 hPa 0,0 l/m 0 min 0 min 0 W/m 0,0 km/h (0 Bft) 95,74 %
20.11.2019 21:28 1,8 C 0,6 C 0,0 C 97 % 1015,1 hPa 0,0 l/m 0 min 0 min 0 W/m 3,2 km/h (1 Bft) 95,65 %
20.11.2019 21:30 1,8 C 0,6 C 0,0 C 97 % 1015,1 hPa 0,0 l/m 0 min 0 min 0 W/m 0,0 km/h (0 Bft) 97,87 %
20.11.2019 21:32 1,8 C 0,6 C 0,0 C 97 % 1015,0 hPa 0,0 l/m 0 min 0 min 0 W/m 0,0 km/h (0 Bft) 93,62 %
20.11.2019 21:34 1,8 C 0,6 C 0,0 C 98 % 1015,0 hPa 0,0 l/m 0 min 0 min 0 W/m 0,0 km/h (0 Bft) 95,74 %
20.11.2019 21:36 1,7 C 0,6 C 0,0 C 98 % 1015,0 hPa 0,0 l/m 0 min 0 min 0 W/m 0,0 km/h (0 Bft) 95,74 %
20.11.2019 21:38 1,7 C 0,0 C 0,0 C 97 % 1015,0 hPa 0,0 l/m 0 min 0 min 0 W/m 0,0 km/h (0 Bft) 95,74 %
20.11.2019 21:40 1,7 C 0,0 C 0,0 C 97 % 1015,0 hPa 0,0 l/m 0 min 0 min 0 W/m 0,0 km/h (0 Bft) 93,48 %
20.11.2019 21:42 1,7 C 0,0 C -0,6 C 97 % 1015,0 hPa 0,0 l/m 0 min 0 min 0 W/m 0,0 km/h (0 Bft) 95,74 %
20.11.2019 21:44 1,6 C 0,0 C -0,6 C 97 % 1015,0 hPa 0,0 l/m 0 min 0 min 0 W/m 0,0 km/h (0 Bft) 95,74 %
20.11.2019 21:46 1,6 C 0,0 C -0,6 C 97 % 1015,0 hPa 0,0 l/m 0 min 0 min 0 W/m 0,0 km/h (0 Bft) 93,62 %
20.11.2019 21:48 1,6 C 0,0 C -0,6 C 97 % 1014,9 hPa 0,0 l/m 0 min 0 min 0 W/m 0,0 km/h (0 Bft) 93,62 %
20.11.2019 21:50 1,6 C 0,0 C -0,6 C 97 % 1014,9 hPa 0,0 l/m 0 min 0 min 0 W/m 0,0 km/h (0 Bft) 93,62 %
20.11.2019 21:52 1,5 C 0,0 C -0,6 C 97 % 1014,9 hPa 0,0 l/m 0 min 0 min 0 W/m 0,0 km/h (0 Bft) 97,83 %
20.11.2019 21:54 1,4 C 0,0 C -0,6 C 97 % 1014,8 hPa 0,0 l/m 0 min 0 min 0 W/m 0,0 km/h (0 Bft) 95,74 %
20.11.2019 21:56 1,4 C 0,0 C -0,6 C 97 % 1014,7 hPa 0,0 l/m 0 min 0 min 0 W/m 0,0 km/h (0 Bft) 95,74 %
20.11.2019 21:58 1,4 C 0,0 C -0,6 C 97 % 1014,8 hPa 0,0 l/m 0 min 0 min 0 W/m 0,0 km/h (0 Bft) 93,62 %
20.11.2019 22:00 1,3 C 0,0 C -0,6 C 97 % 1014,8 hPa 0,0 l/m 0 min 0 min 0 W/m 0,0 km/h (0 Bft) 95,74 %
20.11.2019 22:02 1,3 C 0,0 C -0,6 C 97 % 1014,7 hPa 0,0 l/m 0 min 0 min 0 W/m 0,0 km/h (0 Bft) 93,48 %
20.11.2019 22:04 1,3 C 0,0 C -0,6 C 97 % 1014,7 hPa 0,0 l/m 0 min 0 min 0 W/m 3,2 km/h (1 Bft) 93,62 %
20.11.2019 22:06 1,3 C 0,0 C -0,6 C 97 % 1014,7 hPa 0,0 l/m 0 min 0 min 0 W/m 0,0 km/h (0 Bft) 93,62 %
20.11.2019 22:08 1,2 C 0,0 C -0,6 C 97 % 1014,7 hPa 0,0 l/m 0 min 0 min 0 W/m 0,0 km/h (0 Bft) 93,62 %
20.11.2019 22:10 1,2 C 0,0 C -0,6 C 97 % 1014,7 hPa 0,0 l/m 0 min 0 min 0 W/m 0,0 km/h (0 Bft) 93,62 %
20.11.2019 22:12 1,2 C 0,0 C -0,6 C 97 % 1014,7 hPa 0,0 l/m 0 min 0 min 0 W/m 0,0 km/h (0 Bft) 93,62 %
20.11.2019 22:14 1,2 C 0,0 C -0,6 C 97 % 1014,7 hPa 0,0 l/m 0 min 0 min 0 W/m 0,0 km/h (0 Bft) 95,65 %
20.11.2019 22:16 1,1 C 0,0 C -0,6 C 97 % 1014,7 hPa 0,0 l/m 0 min 0 min 0 W/m 0,0 km/h (0 Bft) 95,74 %
20.11.2019 22:18 1,1 C 0,0 C -0,6 C 97 % 1014,7 hPa 0,0 l/m 0 min 0 min 0 W/m 0,0 km/h (0 Bft) 97,87 %
20.11.2019 22:20 1,1 C 0,0 C -0,6 C 97 % 1014,7 hPa 0,0 l/m 0 min 0 min 0 W/m 0,0 km/h (0 Bft) 97,87 %
20.11.2019 22:22 1,1 C 0,0 C -0,6 C 97 % 1014,7 hPa 0,0 l/m 0 min 0 min 0 W/m 3,2 km/h (1 Bft) 97,87 %
20.11.2019 22:24 1,1 C 0,0 C -0,6 C 97 % 1014,6 hPa 0,0 l/m 0 min 0 min 0 W/m 0,0 km/h (0 Bft) 97,87 %
20.11.2019 22:26 1,0 C 0,0 C -0,6 C 97 % 1014,6 hPa 0,0 l/m 0 min 0 min 0 W/m 0,0 km/h (0 Bft) 97,83 %
20.11.2019 22:28 1,0 C 0,0 C -0,6 C 97 % 1014,6 hPa 0,0 l/m 0 min 0 min 0 W/m 0,0 km/h (0 Bft) 97,87 %
20.11.2019 22:30 1,0 C 0,0 C -0,6 C 97 % 1014,6 hPa 0,0 l/m 0 min 0 min 0 W/m 0,0 km/h (0 Bft) 97,87 %
20.11.2019 22:32 0,9 C 0,0 C -0,6 C 97 % 1014,6 hPa 0,0 l/m 0 min 0 min 0 W/m 0,0 km/h (0 Bft) 97,87 %
20.11.2019 22:34 0,9 C 0,0 C -0,6 C 97 % 1014,6 hPa 0,0 l/m 0 min 0 min 0 W/m 0,0 km/h (0 Bft) 97,87 %
20.11.2019 22:36 0,9 C 0,0 C -0,6 C 97 % 1014,6 hPa 0,0 l/m 0 min 0 min 0 W/m 3,2 km/h (1 Bft) 97,87 %
20.11.2019 22:38 0,9 C 0,0 C -0,6 C 97 % 1014,6 hPa 0,0 l/m 0 min 0 min 0 W/m 3,2 km/h (1 Bft) 100,00 %
20.11.2019 22:40 0,9 C 0,0 C -0,6 C 97 % 1014,6 hPa 0,0 l/m 0 min 0 min 0 W/m 0,0 km/h (0 Bft) 100,00 %
20.11.2019 22:42 0,8 C 0,0 C -0,6 C 97 % 1014,6 hPa 0,0 l/m 0 min 0 min 0 W/m 3,2 km/h (1 Bft) 100,00 %
20.11.2019 22:44 0,8 C 0,0 C -0,6 C 97 % 1014,5 hPa 0,0 l/m 0 min 0 min 0 W/m 0,0 km/h (0 Bft) 100,00 %
20.11.2019 22:46 0,8 C -0,6 C -0,6 C 97 % 1014,6 hPa 0,0 l/m 0 min 0 min 0 W/m 0,0 km/h (0 Bft) 97,87 %
20.11.2019 22:48 0,8 C -0,6 C -1,1 C 97 % 1014,6 hPa 0,0 l/m 0 min 0 min 0 W/m 0,0 km/h (0 Bft) 100,00 %
20.11.2019 22:50 0,8 C -0,6 C -1,1 C 97 % 1014,5 hPa 0,0 l/m 0 min 0 min 0 W/m 0,0 km/h (0 Bft) 100,00 %
20.11.2019 22:52 0,8 C -0,6 C -1,1 C 98 % 1014,5 hPa 0,0 l/m 0 min 0 min 0 W/m 0,0 km/h (0 Bft) 100,00 %
20.11.2019 22:54 0,8 C 0,0 C -1,1 C 98 % 1014,5 hPa 0,0 l/m 0 min 0 min 0 W/m 3,2 km/h (1 Bft) 100,00 %
20.11.2019 22:56 0,7 C -0,6 C -1,1 C 97 % 1014,5 hPa 0,0 l/m 0 min 0 min 0 W/m 0,0 km/h (0 Bft) 100,00 %
20.11.2019 22:58 0,7 C -0,6 C -1,1 C 97 % 1014,5 hPa 0,0 l/m 0 min 0 min 0 W/m 0,0 km/h (0 Bft) 100,00 %
20.11.2019 23:00 0,7 C -0,6 C -1,1 C 97 % 1014,4 hPa 0,0 l/m 0 min 0 min 0 W/m 0,0 km/h (0 Bft) 100,00 %
20.11.2019 23:02 0,7 C -0,6 C -1,1 C 97 % 1014,5 hPa 0,0 l/m 0 min 0 min 0 W/m 3,2 km/h (1 Bft) 100,00 %
20.11.2019 23:04 0,6 C -0,6 C -1,1 C 97 % 1014,4 hPa 0,0 l/m 0 min 0 min 0 W/m 0,0 km/h (0 Bft) 100,00 %
20.11.2019 23:06 0,6 C -0,6 C -1,1 C 97 % 1014,4 hPa 0,0 l/m 0 min 0 min 0 W/m 0,0 km/h (0 Bft) 100,00 %
20.11.2019 23:08 0,6 C -0,6 C -1,1 C 97 % 1014,4 hPa 0,0 l/m 0 min 0 min 0 W/m 0,0 km/h (0 Bft) 100,00 %
20.11.2019 23:10 0,6 C -0,6 C -1,1 C 97 % 1014,5 hPa 0,0 l/m 0 min 0 min 0 W/m 0,0 km/h (0 Bft) 100,00 %
20.11.2019 23:12 0,6 C -0,6 C -1,1 C 97 % 1014,4 hPa 0,0 l/m 0 min 0 min 0 W/m 0,0 km/h (0 Bft) 100,00 %
20.11.2019 23:14 0,6 C -0,6 C -1,7 C 97 % 1014,5 hPa 0,0 l/m 0 min 0 min 0 W/m 0,0 km/h (0 Bft) 100,00 %
20.11.2019 23:16 0,6 C -0,6 C -1,7 C 97 % 1014,4 hPa 0,0 l/m 0 min 0 min 0 W/m 0,0 km/h (0 Bft) 100,00 %
20.11.2019 23:18 0,6 C -1,1 C -1,7 C 97 % 1014,4 hPa 0,0 l/m 0 min 0 min 0 W/m 0,0 km/h (0 Bft) 65,96 %
20.11.2019 23:20 0,6 C -1,1 C -1,7 C 98 % 1014,4 hPa 0,0 l/m 0 min 0 min 0 W/m 0,0 km/h (0 Bft) 87,50 %
20.11.2019 23:22 0,6 C -1,1 C -1,7 C 98 % 1014,5 hPa 0,0 l/m 0 min 0 min 0 W/m 0,0 km/h (0 Bft) 100,00 %
20.11.2019 23:24 0,6 C -1,1 C -1,7 C 98 % 1014,5 hPa 0,0 l/m 0 min 0 min 0 W/m 0,0 km/h (0 Bft) 97,83 %
20.11.2019 23:26 0,6 C -1,1 C -1,7 C 98 % 1014,5 hPa 0,0 l/m 0 min 0 min 0 W/m 0,0 km/h (0 Bft) 100,00 %
20.11.2019 23:28 0,5 C -1,1 C -1,7 C 98 % 1014,4 hPa 0,0 l/m 0 min 0 min 0 W/m 0,0 km/h (0 Bft) 100,00 %
20.11.2019 23:30 0,5 C -1,1 C -1,7 C 98 % 1014,4 hPa 0,0 l/m 0 min 0 min 0 W/m 0,0 km/h (0 Bft) 100,00 %
20.11.2019 23:32 0,4 C -1,7 C -2,2 C 97 % 1014,3 hPa 0,0 l/m 0 min 0 min 0 W/m 0,0 km/h (0 Bft) 100,00 %
20.11.2019 23:34 0,4 C -1,7 C -2,2 C 97 % 1014,3 hPa 0,0 l/m 0 min 0 min 0 W/m 0,0 km/h (0 Bft) 97,87 %
20.11.2019 23:36 0,4 C -1,7 C -2,2 C 97 % 1014,3 hPa 0,0 l/m 0 min 0 min 0 W/m 0,0 km/h (0 Bft) 97,83 %
20.11.2019 23:38 0,4 C -1,7 C -2,2 C 97 % 1014,3 hPa 0,0 l/m 0 min 0 min 0 W/m 0,0 km/h (0 Bft) 100,00 %
20.11.2019 23:40 0,3 C -1,7 C -2,2 C 97 % 1014,2 hPa 0,0 l/m 0 min 0 min 0 W/m 0,0 km/h (0 Bft) 100,00 %
20.11.2019 23:42 0,3 C -1,7 C -2,2 C 97 % 1014,1 hPa 0,0 l/m 0 min 0 min 0 W/m 0,0 km/h (0 Bft) 97,87 %
20.11.2019 23:44 0,3 C -1,7 C -2,2 C 97 % 1014,2 hPa 0,0 l/m 0 min 0 min 0 W/m 0,0 km/h (0 Bft) 97,87 %
20.11.2019 23:46 0,2 C -1,7 C -2,2 C 97 % 1014,2 hPa 0,0 l/m 0 min 0 min 0 W/m 0,0 km/h (0 Bft) 95,74 %
20.11.2019 23:48 0,2 C -1,7 C -2,2 C 97 % 1014,1 hPa 0,0 l/m 0 min 0 min 0 W/m 0,0 km/h (0 Bft) 100,00 %
20.11.2019 23:50 0,2 C -1,7 C -2,2 C 97 % 1014,2 hPa 0,0 l/m 0 min 0 min 0 W/m 0,0 km/h (0 Bft) 100,00 %
20.11.2019 23:52 0,1 C -1,7 C -2,2 C 97 % 1014,2 hPa 0,0 l/m 0 min 0 min 0 W/m 0,0 km/h (0 Bft) 93,62 %
20.11.2019 23:54 0,1 C -1,7 C -2,2 C 97 % 1014,1 hPa 0,0 l/m 0 min 0 min 0 W/m 0,0 km/h (0 Bft) 97,87 %
20.11.2019 23:56 0,1 C -1,7 C -2,2 C 97 % 1014,1 hPa 0,0 l/m 0 min 0 min 0 W/m 0,0 km/h (0 Bft) 97,87 %
20.11.2019 23:58 0,1 C -1,7 C -2,2 C 97 % 1014,1 hPa 0,0 l/m 0 min 0 min 0 W/m 0,0 km/h (0 Bft) 97,87 %
_ Min-Zeit 08:28 07:24 23:32 14:34 23:42 - - - - 00:00 00:02
Minimum _ -0,5 C -1,7 C -2,2 C 90 % 1014,1 hPa - - - - 0,0 km/h (0 Bft) 10,53 %
_ Max-Zeit 13:50 12:38 12:12 10:22 02:58 09:28 09:06 00:00 12:38 04:16 00:08
Maximum _ 6,8 C 13,3 C 5,0 C 100 % 1020,3 hPa 0,2 l/m 2 min 0 min 438 W/m 16,1 km/h
SO (3 Bft)
100,00 %
Durchschnitt _ 2,0 C 1,9 C 0,4 C 97 % 1017,9 hPa #0,2 l/m #5:00 h #0 min. 155 W/m 1,5 km/h (1 Bft) 96,45 %
© 2019 W. Hausmann